Time,TemperatureF,DewpointF,PressureIn,WindDirection,WindDirectionDegrees,WindSpeedMPH,WindSpeedGustMPH,Humidity,HourlyPrecipIn,Conditions,Clouds,dailyrainin,SolarRadiationWatts/m^2,SoftwareType,DateUTC
2013-06-15 00:01:00,51.3,44.3,30.03,South,188,0.0,2.0,77,0.00,,,0.00,0,Wunderground v.1.15,2013-06-15 04:01:00,
2013-06-15 00:02:00,51.3,44.3,30.03,South,188,0.0,2.0,77,0.00,,,0.00,0,Wunderground v.1.15,2013-06-15 04:02:00,
2013-06-15 00:06:00,51.2,44.2,30.03,South,188,0.0,2.0,77,0.00,,,0.00,0,Wunderground v.1.15,2013-06-15 04:06:00,
2013-06-15 00:09:00,51.1,44.1,30.02,South,188,0.0,2.0,77,0.00,,,0.00,0,Wunderground v.1.15,2013-06-15 04:09:00,
2013-06-15 00:10:00,51.1,44.1,30.02,South,188,0.0,2.0,77,0.00,,,0.00,0,Wunderground v.1.15,2013-06-15 04:10:00,
2013-06-15 00:11:00,51.1,44.1,30.02,South,188,0.0,2.0,77,0.00,,,0.00,0,Wunderground v.1.15,2013-06-15 04:11:00,
2013-06-15 00:12:00,51.1,44.1,30.02,South,188,0.0,2.0,77,0.00,,,0.00,0,Wunderground v.1.15,2013-06-15 04:12:00,
2013-06-15 00:15:00,51.0,44.0,30.02,South,188,0.0,2.0,77,0.00,,,0.00,0,Wunderground v.1.15,2013-06-15 04:15:00,
2013-06-15 00:18:00,50.9,43.9,30.03,South,188,0.0,2.0,77,0.00,,,0.00,0,Wunderground v.1.15,2013-06-15 04:18:00,
2013-06-15 00:20:00,50.9,44.3,30.02,South,188,0.0,2.0,78,0.00,,,0.00,0,Wunderground v.1.15,2013-06-15 04:20:00,
2013-06-15 00:21:00,50.9,44.3,30.02,South,188,0.0,2.0,78,0.00,,,0.00,0,Wunderground v.1.15,2013-06-15 04:21:00,
2013-06-15 00:22:00,50.9,44.3,30.02,South,188,0.0,2.0,78,0.00,,,0.00,0,Wunderground v.1.15,2013-06-15 04:22:00,
2013-06-15 00:24:00,50.8,44.2,30.02,South,188,0.0,2.0,78,0.00,,,0.00,0,Wunderground v.1.15,2013-06-15 04:24:00,
2013-06-15 00:25:00,50.8,44.2,30.02,South,188,0.0,2.0,78,0.00,,,0.00,0,Wunderground v.1.15,2013-06-15 04:25:00,
2013-06-15 00:26:00,50.8,44.2,30.02,South,188,0.0,2.0,78,0.00,,,0.00,0,Wunderground v.1.15,2013-06-15 04:26:00,
2013-06-15 00:27:00,50.8,44.5,30.02,South,188,0.0,2.0,79,0.00,,,0.00,0,Wunderground v.1.15,2013-06-15 04:27:00,
2013-06-15 00:29:00,50.7,44.4,30.02,South,188,0.0,2.0,79,0.00,,,0.00,0,Wunderground v.1.15,2013-06-15 04:29:00,
2013-06-15 00:31:00,50.7,44.4,30.02,South,188,0.0,2.0,79,0.00,,,0.00,0,Wunderground v.1.15,2013-06-15 04:31:00,
2013-06-15 00:32:00,50.7,44.4,30.02,South,188,0.0,2.0,79,0.00,,,0.00,0,Wunderground v.1.15,2013-06-15 04:32:00,
2013-06-15 00:35:00,50.7,44.4,30.02,South,188,0.0,2.0,79,0.00,,,0.00,0,Wunderground v.1.15,2013-06-15 04:35:00,
2013-06-15 00:37:00,50.6,44.3,30.02,South,188,0.0,2.0,79,0.00,,,0.00,0,Wunderground v.1.15,2013-06-15 04:37:00,
2013-06-15 00:39:00,50.6,44.3,30.02,South,188,0.0,2.0,79,0.00,,,0.00,0,Wunderground v.1.15,2013-06-15 04:39:00,
2013-06-15 00:43:00,50.5,44.2,30.02,South,188,0.0,2.0,79,0.00,,,0.00,0,Wunderground v.1.15,2013-06-15 04:43:00,
2013-06-15 00:44:00,50.5,44.2,30.02,South,188,0.0,2.0,79,0.00,,,0.00,0,Wunderground v.1.15,2013-06-15 04:44:00,
2013-06-15 00:47:00,50.5,44.2,30.02,South,188,0.0,2.0,79,0.00,,,0.00,0,Wunderground v.1.15,2013-06-15 04:47:00,
2013-06-15 00:48:00,50.5,44.2,30.02,South,188,0.0,2.0,79,0.00,,,0.00,0,Wunderground v.1.15,2013-06-15 04:48:00,
2013-06-15 00:52:00,50.5,44.2,30.02,South,188,0.0,2.0,79,0.00,,,0.00,0,Wunderground v.1.15,2013-06-15 04:52:00,
2013-06-15 00:53:00,50.5,44.2,30.02,South,188,0.0,2.0,79,0.00,,,0.00,0,Wunderground v.1.15,2013-06-15 04:53:00,
2013-06-15 00:57:00,50.4,44.5,30.02,South,188,0.0,2.0,80,0.00,,,0.00,0,Wunderground v.1.15,2013-06-15 04:57:00,
2013-06-15 00:58:00,50.4,44.5,30.02,South,188,0.0,2.0,80,0.00,,,0.00,0,Wunderground v.1.15,2013-06-15 04:58:00,
2013-06-15 01:00:00,50.4,44.8,30.02,South,188,0.0,2.0,81,0.00,,,0.00,0,Wunderground v.1.15,2013-06-15 05:00:00,
2013-06-15 01:02:00,50.4,44.8,30.02,South,188,0.0,2.0,81,0.00,,,0.00,0,Wunderground v.1.15,2013-06-15 05:02:00,
2013-06-15 01:03:00,50.5,44.9,30.01,South,188,0.0,2.0,81,0.00,,,0.00,0,Wunderground v.1.15,2013-06-15 05:03:00,
2013-06-15 01:04:00,50.5,44.9,30.01,South,188,0.0,2.0,81,0.00,,,0.00,0,Wunderground v.1.15,2013-06-15 05:04:00,
2013-06-15 01:06:00,50.4,44.8,30.01,South,188,0.0,2.0,81,0.00,,,0.00,0,Wunderground v.1.15,2013-06-15 05:06:00,
2013-06-15 01:09:00,50.3,44.7,30.01,South,188,0.0,2.0,81,0.00,,,0.00,0,Wunderground v.1.15,2013-06-15 05:09:00,
2013-06-15 01:10:00,50.3,45.0,30.01,South,188,0.0,2.0,82,0.00,,,0.00,0,Wunderground v.1.15,2013-06-15 05:10:00,
2013-06-15 01:11:00,50.3,45.0,30.02,South,188,0.0,2.0,82,0.00,,,0.00,0,Wunderground v.1.15,2013-06-15 05:11:00,
2013-06-15 01:12:00,50.3,45.0,30.02,South,188,0.0,2.0,82,0.00,,,0.00,0,Wunderground v.1.15,2013-06-15 05:12:00,
2013-06-15 01:15:00,50.1,44.8,30.01,South,188,0.0,2.0,82,0.00,,,0.00,0,Wunderground v.1.15,2013-06-15 05:15:00,
2013-06-15 01:16:00,50.1,44.8,30.01,South,188,0.0,2.0,82,0.00,,,0.00,0,Wunderground v.1.15,2013-06-15 05:16:00,
2013-06-15 01:19:00,50.0,44.7,30.01,South,188,0.0,2.0,82,0.00,,,0.00,0,Wunderground v.1.15,2013-06-15 05:19:00,
2013-06-15 01:20:00,49.9,44.9,30.01,South,188,0.0,2.0,83,0.00,,,0.00,0,Wunderground v.1.15,2013-06-15 05:20:00,
2013-06-15 01:21:00,49.9,44.9,30.01,South,188,0.0,2.0,83,0.00,,,0.00,0,Wunderground v.1.15,2013-06-15 05:21:00,
2013-06-15 01:24:00,49.6,44.6,30.02,South,188,0.0,2.0,83,0.00,,,0.00,0,Wunderground v.1.15,2013-06-15 05:24:00,
2013-06-15 01:26:00,49.5,44.6,30.02,South,188,0.0,2.0,83,0.00,,,0.00,0,Wunderground v.1.15,2013-06-15 05:26:00,
2013-06-15 01:27:00,49.5,44.9,30.02,South,188,0.0,2.0,84,0.00,,,0.00,0,Wunderground v.1.15,2013-06-15 05:27:00,
2013-06-15 01:30:00,49.4,44.8,30.02,South,188,0.0,2.0,84,0.00,,,0.00,0,Wunderground v.1.15,2013-06-15 05:30:00,
2013-06-15 01:32:00,49.3,44.7,30.02,South,188,0.0,2.0,84,0.00,,,0.00,0,Wunderground v.1.15,2013-06-15 05:32:00,
2013-06-15 01:33:00,49.2,44.6,30.02,South,188,0.0,2.0,84,0.00,,,0.00,0,Wunderground v.1.15,2013-06-15 05:33:00,
2013-06-15 01:35:00,49.2,44.6,30.01,South,188,0.0,2.0,84,0.00,,,0.00,0,Wunderground v.1.15,2013-06-15 05:35:00,
2013-06-15 01:38:00,49.0,44.4,30.01,South,188,0.0,2.0,84,0.00,,,0.00,0,Wunderground v.1.15,2013-06-15 05:38:00,
2013-06-15 01:41:00,48.9,44.6,30.01,South,188,0.0,2.0,85,0.00,,,0.00,0,Wunderground v.1.15,2013-06-15 05:41:00,
2013-06-15 01:43:00,48.8,44.5,30.01,South,188,0.0,2.0,85,0.00,,,0.00,0,Wunderground v.1.15,2013-06-15 05:43:00,
2013-06-15 01:44:00,48.8,44.5,30.01,South,188,0.0,2.0,85,0.00,,,0.00,0,Wunderground v.1.15,2013-06-15 05:44:00,
2013-06-15 01:46:00,48.7,44.4,30.01,South,188,0.0,2.0,85,0.00,,,0.00,0,Wunderground v.1.15,2013-06-15 05:46:00,
2013-06-15 01:48:00,48.6,44.3,30.01,South,188,0.0,2.0,85,0.00,,,0.00,0,Wunderground v.1.15,2013-06-15 05:48:00,
2013-06-15 01:49:00,48.6,44.3,30.01,South,188,0.0,2.0,85,0.00,,,0.00,0,Wunderground v.1.15,2013-06-15 05:49:00,
2013-06-15 01:54:00,48.4,44.1,30.01,South,188,0.0,2.0,85,0.00,,,0.00,0,Wunderground v.1.15,2013-06-15 05:54:00,
2013-06-15 01:56:00,48.3,44.0,30.01,South,188,0.0,2.0,85,0.00,,,0.00,0,Wunderground v.1.15,2013-06-15 05:56:00,
2013-06-15 01:57:00,48.3,44.0,30.01,South,188,0.0,2.0,85,0.00,,,0.00,0,Wunderground v.1.15,2013-06-15 05:57:00,
2013-06-15 02:00:00,48.3,44.0,30.00,South,188,0.0,2.0,85,0.00,,,0.00,0,Wunderground v.1.15,2013-06-15 06:00:00,
2013-06-15 02:01:00,48.3,44.0,30.00,South,188,0.0,2.0,85,0.00,,,0.00,0,Wunderground v.1.15,2013-06-15 06:01:00,
2013-06-15 02:03:00,48.2,43.9,30.00,South,188,0.0,2.0,85,0.00,,,0.00,0,Wunderground v.1.15,2013-06-15 06:03:00,
2013-06-15 02:04:00,48.2,43.9,30.00,South,188,0.0,2.0,85,0.00,,,0.00,0,Wunderground v.1.15,2013-06-15 06:04:00,
2013-06-15 02:07:00,48.1,43.8,30.00,South,188,0.0,2.0,85,0.00,,,0.00,0,Wunderground v.1.15,2013-06-15 06:07:00,
2013-06-15 02:09:00,48.1,43.8,30.00,South,188,0.0,2.0,85,0.00,,,0.00,0,Wunderground v.1.15,2013-06-15 06:09:00,
2013-06-15 02:10:00,48.1,43.8,30.00,South,188,0.0,2.0,85,0.00,,,0.00,0,Wunderground v.1.15,2013-06-15 06:10:00,
2013-06-15 02:11:00,48.1,44.1,30.00,South,188,0.0,2.0,86,0.00,,,0.00,0,Wunderground v.1.15,2013-06-15 06:11:00,
2013-06-15 02:12:00,48.0,44.0,30.00,South,188,0.0,2.0,86,0.00,,,0.00,0,Wunderground v.1.15,2013-06-15 06:12:00,
2013-06-15 02:16:00,47.9,43.9,30.00,South,188,0.0,2.0,86,0.00,,,0.00,0,Wunderground v.1.15,2013-06-15 06:16:00,
2013-06-15 02:17:00,47.9,43.9,30.00,South,188,0.0,2.0,86,0.00,,,0.00,0,Wunderground v.1.15,2013-06-15 06:17:00,
2013-06-15 02:18:00,47.9,43.9,30.00,South,188,0.0,2.0,86,0.00,,,0.00,0,Wunderground v.1.15,2013-06-15 06:18:00,
2013-06-15 02:19:00,47.9,43.9,30.00,South,188,0.0,2.0,86,0.00,,,0.00,0,Wunderground v.1.15,2013-06-15 06:19:00,
2013-06-15 02:20:00,47.8,43.8,30.00,South,188,0.0,2.0,86,0.00,,,0.00,0,Wunderground v.1.15,2013-06-15 06:20:00,
2013-06-15 02:25:00,47.7,43.7,30.01,South,188,0.0,2.0,86,0.00,,,0.00,0,Wunderground v.1.15,2013-06-15 06:25:00,
2013-06-15 02:27:00,47.7,43.7,30.01,South,188,0.0,2.0,86,0.00,,,0.00,0,Wunderground v.1.15,2013-06-15 06:27:00,
2013-06-15 02:28:00,47.6,43.6,30.01,South,188,0.0,2.0,86,0.00,,,0.00,0,Wunderground v.1.15,2013-06-15 06:28:00,
2013-06-15 02:29:00,47.6,43.6,30.01,South,188,0.0,2.0,86,0.00,,,0.00,0,Wunderground v.1.15,2013-06-15 06:29:00,
2013-06-15 02:34:00,47.5,43.8,30.01,South,188,0.0,2.0,87,0.00,,,0.00,0,Wunderground v.1.15,2013-06-15 06:34:00,
2013-06-15 02:35:00,47.5,43.8,30.01,South,188,0.0,2.0,87,0.00,,,0.00,0,Wunderground v.1.15,2013-06-15 06:35:00,
2013-06-15 02:38:00,47.5,43.8,30.01,South,188,0.0,2.0,87,0.00,,,0.00,0,Wunderground v.1.15,2013-06-15 06:38:00,
2013-06-15 02:39:00,47.5,43.8,30.01,South,188,0.0,2.0,87,0.00,,,0.00,0,Wunderground v.1.15,2013-06-15 06:39:00,
2013-06-15 02:40:00,47.5,43.8,30.01,South,188,0.0,2.0,87,0.00,,,0.00,0,Wunderground v.1.15,2013-06-15 06:40:00,
2013-06-15 02:41:00,47.5,44.1,30.01,South,188,0.0,2.0,88,0.00,,,0.00,0,Wunderground v.1.15,2013-06-15 06:41:00,
2013-06-15 02:46:00,47.6,44.2,30.01,South,188,0.0,2.0,88,0.00,,,0.00,0,Wunderground v.1.15,2013-06-15 06:46:00,
2013-06-15 02:47:00,47.6,44.2,30.01,South,188,0.0,2.0,88,0.00,,,0.00,0,Wunderground v.1.15,2013-06-15 06:47:00,
2013-06-15 02:48:00,47.6,44.2,30.01,South,188,0.0,2.0,88,0.00,,,0.00,0,Wunderground v.1.15,2013-06-15 06:48:00,
2013-06-15 02:53:00,47.6,44.2,30.01,South,188,0.0,2.0,88,0.00,,,0.00,0,Wunderground v.1.15,2013-06-15 06:53:00,
2013-06-15 02:54:00,47.7,44.6,30.01,South,188,0.0,2.0,89,0.00,,,0.00,0,Wunderground v.1.15,2013-06-15 06:54:00,
2013-06-15 02:55:00,47.7,44.6,30.01,South,188,0.0,2.0,89,0.00,,,0.00,0,Wunderground v.1.15,2013-06-15 06:55:00,
2013-06-15 02:56:00,47.7,44.6,30.01,South,188,0.0,2.0,89,0.00,,,0.00,0,Wunderground v.1.15,2013-06-15 06:56:00,
2013-06-15 02:58:00,47.7,44.6,30.01,South,188,0.0,2.0,89,0.00,,,0.00,0,Wunderground v.1.15,2013-06-15 06:58:00,
2013-06-15 03:01:00,47.7,44.6,30.01,South,188,0.0,2.0,89,0.00,,,0.00,0,Wunderground v.1.15,2013-06-15 07:01:00,
2013-06-15 03:02:00,47.7,44.3,30.01,South,188,0.0,2.0,88,0.00,,,0.00,0,Wunderground v.1.15,2013-06-15 07:02:00,
2013-06-15 03:03:00,47.7,44.3,30.01,South,188,0.0,2.0,88,0.00,,,0.00,0,Wunderground v.1.15,2013-06-15 07:03:00,
2013-06-15 03:04:00,47.8,44.4,30.01,South,188,0.0,2.0,88,0.00,,,0.00,0,Wunderground v.1.15,2013-06-15 07:04:00,
2013-06-15 03:08:00,47.7,44.3,30.01,South,188,0.0,2.0,88,0.00,,,0.00,0,Wunderground v.1.15,2013-06-15 07:08:00,
2013-06-15 03:09:00,47.7,44.3,30.01,South,188,0.0,2.0,88,0.00,,,0.00,0,Wunderground v.1.15,2013-06-15 07:09:00,
2013-06-15 03:10:00,47.7,44.3,30.01,South,188,0.0,2.0,88,0.00,,,0.00,0,Wunderground v.1.15,2013-06-15 07:10:00,
2013-06-15 03:13:00,47.6,44.2,30.01,South,188,0.0,2.0,88,0.00,,,0.00,0,Wunderground v.1.15,2013-06-15 07:13:00,
2013-06-15 03:16:00,47.6,43.6,30.00,West,259,0.0,2.0,86,0.00,,,0.00,0,Wunderground v.1.15,2013-06-15 07:16:00,
2013-06-15 03:17:00,47.5,43.5,30.00,West,274,0.0,2.0,86,0.00,,,0.00,0,Wunderground v.1.15,2013-06-15 07:17:00,
2013-06-15 03:19:00,47.4,43.1,30.00,West,274,0.0,2.0,85,0.00,,,0.00,0,Wunderground v.1.15,2013-06-15 07:19:00,
2013-06-15 03:21:00,47.4,42.5,30.00,West,274,0.0,2.0,83,0.00,,,0.00,0,Wunderground v.1.15,2013-06-15 07:21:00,
2013-06-15 03:25:00,47.4,42.2,30.00,West,274,0.0,2.0,82,0.00,,,0.00,0,Wunderground v.1.15,2013-06-15 07:25:00,
2013-06-15 03:26:00,47.4,41.9,30.01,West,274,0.0,2.0,81,0.00,,,0.00,0,Wunderground v.1.15,2013-06-15 07:26:00,
2013-06-15 03:27:00,47.4,41.9,30.01,West,274,0.0,2.0,81,0.00,,,0.00,0,Wunderground v.1.15,2013-06-15 07:27:00,
2013-06-15 03:29:00,47.4,41.9,30.01,West,274,0.0,2.0,81,0.00,,,0.00,0,Wunderground v.1.15,2013-06-15 07:29:00,
2013-06-15 03:31:00,47.4,41.5,30.01,West,274,0.0,2.0,80,0.00,,,0.00,0,Wunderground v.1.15,2013-06-15 07:31:00,
2013-06-15 03:34:00,47.5,41.6,30.02,West,274,0.0,2.0,80,0.00,,,0.00,0,Wunderground v.1.15,2013-06-15 07:34:00,
2013-06-15 03:36:00,47.5,42.0,30.02,West,274,0.0,2.0,81,0.00,,,0.00,0,Wunderground v.1.15,2013-06-15 07:36:00,
2013-06-15 03:40:00,47.6,42.1,30.02,West,274,0.0,2.0,81,0.00,,,0.00,0,Wunderground v.1.15,2013-06-15 07:40:00,
2013-06-15 03:41:00,47.6,42.1,30.02,West,274,0.0,2.0,81,0.00,,,0.00,0,Wunderground v.1.15,2013-06-15 07:41:00,
2013-06-15 03:43:00,47.7,42.2,30.02,West,274,0.0,2.0,81,0.00,,,0.00,0,Wunderground v.1.15,2013-06-15 07:43:00,
2013-06-15 03:44:00,47.7,42.5,30.01,West,274,0.0,2.0,82,0.00,,,0.00,0,Wunderground v.1.15,2013-06-15 07:44:00,
2013-06-15 03:46:00,47.7,42.2,30.01,West,274,0.0,2.0,81,0.00,,,0.00,0,Wunderground v.1.15,2013-06-15 07:46:00,
2013-06-15 03:50:00,47.8,41.9,30.02,West,274,0.0,2.0,80,0.00,,,0.00,0,Wunderground v.1.15,2013-06-15 07:50:00,
2013-06-15 03:51:00,47.8,41.9,30.02,West,274,0.0,2.0,80,0.00,,,0.00,0,Wunderground v.1.15,2013-06-15 07:51:00,
2013-06-15 03:55:00,47.9,41.7,30.02,West,274,0.0,2.0,79,0.00,,,0.00,0,Wunderground v.1.15,2013-06-15 07:55:00,
2013-06-15 03:57:00,47.9,41.7,30.02,West,274,0.0,2.0,79,0.00,,,0.00,0,Wunderground v.1.15,2013-06-15 07:57:00,
2013-06-15 04:01:00,48.1,42.2,30.03,West,274,0.0,2.0,80,0.00,,,0.00,0,Wunderground v.1.15,2013-06-15 08:01:00,
2013-06-15 04:03:00,48.2,42.3,30.03,West,274,0.0,2.0,80,0.00,,,0.00,0,Wunderground v.1.15,2013-06-15 08:03:00,
2013-06-15 04:08:00,48.3,42.7,30.02,West,274,0.0,2.0,81,0.00,,,0.00,0,Wunderground v.1.15,2013-06-15 08:08:00,
2013-06-15 04:10:00,48.4,42.8,30.02,West,274,0.0,2.0,81,0.00,,,0.00,0,Wunderground v.1.15,2013-06-15 08:10:00,
2013-06-15 04:11:00,48.5,42.9,30.02,West,274,0.0,2.0,81,0.00,,,0.00,0,Wunderground v.1.15,2013-06-15 08:11:00,
2013-06-15 04:14:00,48.5,42.9,30.02,West,274,0.0,2.0,81,0.00,,,0.00,0,Wunderground v.1.15,2013-06-15 08:14:00,
2013-06-15 04:15:00,48.5,42.9,30.02,West,274,0.0,2.0,81,0.00,,,0.00,0,Wunderground v.1.15,2013-06-15 08:15:00,
2013-06-15 04:17:00,48.6,43.4,30.02,West,274,0.0,2.0,82,0.00,,,0.00,0,Wunderground v.1.15,2013-06-15 08:17:00,
2013-06-15 04:20:00,48.7,43.5,30.02,West,274,0.0,2.0,82,0.00,,,0.00,0,Wunderground v.1.15,2013-06-15 08:20:00,
2013-06-15 04:22:00,48.7,43.1,30.02,West,274,0.0,2.0,81,0.00,,,0.00,0,Wunderground v.1.15,2013-06-15 08:22:00,
2013-06-15 04:24:00,48.7,42.8,30.01,West,274,0.0,2.0,80,0.00,,,0.00,0,Wunderground v.1.15,2013-06-15 08:24:00,
2013-06-15 04:26:00,48.7,42.8,30.01,West,274,0.0,2.0,80,0.00,,,0.00,0,Wunderground v.1.15,2013-06-15 08:26:00,
2013-06-15 04:28:00,48.7,43.1,30.01,West,274,0.0,2.0,81,0.00,,,0.00,0,Wunderground v.1.15,2013-06-15 08:28:00,
2013-06-15 04:29:00,48.7,43.1,30.01,West,274,0.0,2.0,81,0.00,,,0.00,0,Wunderground v.1.15,2013-06-15 08:29:00,
2013-06-15 04:32:00,48.6,43.4,30.01,West,274,0.0,2.0,82,0.00,,,0.00,0,Wunderground v.1.15,2013-06-15 08:32:00,
2013-06-15 04:35:00,48.6,43.4,30.01,West,274,0.0,2.0,82,0.00,,,0.00,0,Wunderground v.1.15,2013-06-15 08:35:00,
2013-06-15 04:36:00,48.7,43.5,30.01,West,274,0.0,2.0,82,0.00,,,0.00,0,Wunderground v.1.15,2013-06-15 08:36:00,
2013-06-15 04:37:00,48.7,43.8,30.01,West,274,0.0,2.0,83,0.00,,,0.00,0,Wunderground v.1.15,2013-06-15 08:37:00,
2013-06-15 04:41:00,48.7,44.1,30.01,West,274,0.0,2.0,84,0.00,,,0.00,0,Wunderground v.1.15,2013-06-15 08:41:00,
2013-06-15 04:42:00,48.7,44.1,30.01,West,274,0.0,2.0,84,0.00,,,0.00,0,Wunderground v.1.15,2013-06-15 08:42:00,
2013-06-15 04:45:00,48.7,44.1,30.01,West,274,0.0,2.0,84,0.00,,,0.00,0,Wunderground v.1.15,2013-06-15 08:45:00,
2013-06-15 04:47:00,48.7,44.4,30.01,West,274,0.0,2.0,85,0.00,,,0.00,0,Wunderground v.1.15,2013-06-15 08:47:00,
2013-06-15 04:48:00,48.7,44.4,30.01,West,274,0.0,2.0,85,0.00,,,0.00,0,Wunderground v.1.15,2013-06-15 08:48:00,
2013-06-15 04:49:00,48.7,44.4,30.00,West,274,0.0,2.0,85,0.00,,,0.00,0,Wunderground v.1.15,2013-06-15 08:49:00,
2013-06-15 04:52:00,48.7,44.4,30.00,West,274,0.0,2.0,85,0.00,,,0.00,0,Wunderground v.1.15,2013-06-15 08:52:00,
2013-06-15 04:54:00,48.7,44.4,30.00,West,274,0.0,2.0,85,0.00,,,0.00,0,Wunderground v.1.15,2013-06-15 08:54:00,
2013-06-15 04:55:00,48.7,44.7,30.01,West,274,0.0,2.0,86,0.00,,,0.00,0,Wunderground v.1.15,2013-06-15 08:55:00,
2013-06-15 04:56:00,48.6,44.6,30.01,West,274,0.0,2.0,86,0.00,,,0.00,0,Wunderground v.1.15,2013-06-15 08:56:00,
2013-06-15 04:59:00,48.6,44.6,30.01,West,274,0.0,2.0,86,0.00,,,0.00,0,Wunderground v.1.15,2013-06-15 08:59:00,
2013-06-15 05:01:00,48.6,44.6,30.01,West,274,0.0,2.0,86,0.00,,,0.00,0,Wunderground v.1.15,2013-06-15 09:01:00,
2013-06-15 05:02:00,48.6,44.6,30.01,West,274,0.0,2.0,86,0.00,,,0.00,0,Wunderground v.1.15,2013-06-15 09:02:00,
2013-06-15 05:06:00,48.6,44.6,30.01,West,274,0.0,2.0,86,0.00,,,0.00,0,Wunderground v.1.15,2013-06-15 09:06:00,
2013-06-15 05:07:00,48.6,44.6,30.01,West,274,0.0,2.0,86,0.00,,,0.00,0,Wunderground v.1.15,2013-06-15 09:07:00,
2013-06-15 05:11:00,48.6,44.9,30.01,West,274,0.0,2.0,87,0.00,,,0.00,0,Wunderground v.1.15,2013-06-15 09:11:00,
2013-06-15 05:12:00,48.6,44.9,30.01,West,274,0.0,2.0,87,0.00,,,0.00,0,Wunderground v.1.15,2013-06-15 09:12:00,
2013-06-15 05:16:00,48.6,44.9,30.01,West,274,0.0,2.0,87,0.00,,,0.00,0,Wunderground v.1.15,2013-06-15 09:16:00,
2013-06-15 05:17:00,48.6,44.9,30.01,West,274,0.0,2.0,87,0.00,,,0.00,0,Wunderground v.1.15,2013-06-15 09:17:00,
2013-06-15 05:18:00,48.6,44.9,30.01,West,274,0.0,2.0,87,0.00,,,0.00,0,Wunderground v.1.15,2013-06-15 09:18:00,
2013-06-15 05:20:00,48.6,44.9,30.01,West,274,0.0,2.0,87,0.00,,,0.00,0,Wunderground v.1.15,2013-06-15 09:20:00,
2013-06-15 05:22:00,48.5,44.8,30.01,West,274,0.0,2.0,87,0.00,,,0.00,0,Wunderground v.1.15,2013-06-15 09:22:00,
2013-06-15 05:24:00,48.5,44.8,30.01,West,274,0.0,2.0,87,0.00,,,0.00,0,Wunderground v.1.15,2013-06-15 09:24:00,
2013-06-15 05:25:00,48.5,44.8,30.01,West,274,0.0,2.0,87,0.00,,,0.00,0,Wunderground v.1.15,2013-06-15 09:25:00,
2013-06-15 05:26:00,48.5,44.8,30.01,West,274,0.0,2.0,87,0.00,,,0.00,0,Wunderground v.1.15,2013-06-15 09:26:00,
2013-06-15 05:27:00,48.5,44.8,30.00,West,274,0.0,2.0,87,0.00,,,0.00,0,Wunderground v.1.15,2013-06-15 09:27:00,
2013-06-15 05:30:00,48.5,44.8,30.00,West,274,0.0,2.0,87,0.00,,,0.00,0,Wunderground v.1.15,2013-06-15 09:30:00,
2013-06-15 05:32:00,48.5,44.8,30.00,West,274,0.0,2.0,87,0.00,,,0.00,0,Wunderground v.1.15,2013-06-15 09:32:00,
2013-06-15 05:33:00,48.5,44.8,30.00,West,274,0.0,2.0,87,0.00,,,0.00,0,Wunderground v.1.15,2013-06-15 09:33:00,
2013-06-15 05:35:00,48.5,44.8,30.00,West,274,0.0,2.0,87,0.00,,,0.00,0,Wunderground v.1.15,2013-06-15 09:35:00,
2013-06-15 05:36:00,48.5,44.8,30.00,West,274,0.0,2.0,87,0.00,,,0.00,0,Wunderground v.1.15,2013-06-15 09:36:00,
2013-06-15 05:38:00,48.5,44.8,30.00,West,274,0.0,2.0,87,0.00,,,0.00,0,Wunderground v.1.15,2013-06-15 09:38:00,
2013-06-15 05:41:00,48.5,44.8,30.00,West,274,0.0,2.0,87,0.00,,,0.00,0,Wunderground v.1.15,2013-06-15 09:41:00,
2013-06-15 05:43:00,48.5,44.8,30.01,West,274,0.0,2.0,87,0.00,,,0.00,0,Wunderground v.1.15,2013-06-15 09:43:00,
2013-06-15 05:45:00,48.5,44.8,30.01,West,274,0.0,2.0,87,0.00,,,0.00,0,Wunderground v.1.15,2013-06-15 09:45:00,
2013-06-15 05:47:00,48.5,44.8,30.01,West,274,0.0,2.0,87,0.00,,,0.00,0,Wunderground v.1.15,2013-06-15 09:47:00,
2013-06-15 05:51:00,48.6,44.9,30.01,West,274,0.0,2.0,87,0.00,,,0.00,0,Wunderground v.1.15,2013-06-15 09:51:00,
2013-06-15 05:52:00,48.7,45.3,30.01,West,274,0.0,2.0,88,0.00,,,0.00,0,Wunderground v.1.15,2013-06-15 09:52:00,
2013-06-15 05:53:00,48.7,45.3,30.01,West,274,0.0,2.0,88,0.00,,,0.00,0,Wunderground v.1.15,2013-06-15 09:53:00,
2013-06-15 05:55:00,48.7,45.3,30.01,West,274,0.0,2.0,88,0.00,,,0.00,0,Wunderground v.1.15,2013-06-15 09:55:00,
2013-06-15 05:58:00,48.8,45.4,30.01,West,274,0.0,2.0,88,0.00,,,0.00,0,Wunderground v.1.15,2013-06-15 09:58:00,
2013-06-15 05:59:00,48.8,45.4,30.01,West,274,0.0,2.0,88,0.00,,,0.00,0,Wunderground v.1.15,2013-06-15 09:59:00,
2013-06-15 06:00:00,48.8,45.4,30.01,West,274,0.0,2.0,88,0.00,,,0.00,0,Wunderground v.1.15,2013-06-15 10:00:00,
2013-06-15 06:02:00,48.8,45.4,30.00,West,274,0.0,2.0,88,0.00,,,0.00,5,Wunderground v.1.15,2013-06-15 10:02:00,
2013-06-15 06:05:00,48.8,45.4,30.01,West,274,0.0,2.0,88,0.00,,,0.00,7,Wunderground v.1.15,2013-06-15 10:05:00,
2013-06-15 06:07:00,48.8,45.4,30.00,West,274,0.0,2.0,88,0.00,,,0.00,7,Wunderground v.1.15,2013-06-15 10:07:00,
2013-06-15 06:08:00,48.9,45.5,30.00,West,274,0.0,2.0,88,0.00,,,0.00,9,Wunderground v.1.15,2013-06-15 10:08:00,
2013-06-15 06:11:00,48.9,45.5,30.00,West,274,0.0,2.0,88,0.00,,,0.00,9,Wunderground v.1.15,2013-06-15 10:11:00,
2013-06-15 06:13:00,48.9,45.5,30.00,West,274,0.0,2.0,88,0.00,,,0.00,9,Wunderground v.1.15,2013-06-15 10:13:00,
2013-06-15 06:16:00,49.0,45.9,30.00,West,274,0.0,2.0,89,0.00,,,0.00,9,Wunderground v.1.15,2013-06-15 10:16:00,
2013-06-15 06:18:00,49.0,45.9,30.00,West,274,0.0,2.0,89,0.00,,,0.00,11,Wunderground v.1.15,2013-06-15 10:18:00,
2013-06-15 06:19:00,49.0,45.9,30.00,West,274,0.0,2.0,89,0.00,,,0.00,11,Wunderground v.1.15,2013-06-15 10:19:00,
2013-06-15 06:20:00,49.0,45.9,30.00,West,274,0.0,2.0,89,0.00,,,0.00,11,Wunderground v.1.15,2013-06-15 10:20:00,
2013-06-15 06:22:00,49.0,45.9,30.00,West,274,0.0,2.0,89,0.00,,,0.00,12,Wunderground v.1.15,2013-06-15 10:22:00,
2013-06-15 06:24:00,49.1,46.0,30.00,West,274,0.0,2.0,89,0.00,,,0.00,18,Wunderground v.1.15,2013-06-15 10:24:00,
2013-06-15 06:26:00,49.1,46.0,30.00,West,274,0.0,2.0,89,0.00,,,0.00,18,Wunderground v.1.15,2013-06-15 10:26:00,
2013-06-15 06:28:00,49.2,46.1,30.01,West,274,0.0,2.0,89,0.00,,,0.00,19,Wunderground v.1.15,2013-06-15 10:28:00,
2013-06-15 06:30:00,49.2,46.1,30.01,West,274,0.0,2.0,89,0.00,,,0.00,19,Wunderground v.1.15,2013-06-15 10:30:00,
2013-06-15 06:31:00,49.3,46.2,30.01,West,274,0.0,2.0,89,0.00,,,0.00,19,Wunderground v.1.15,2013-06-15 10:31:00,
2013-06-15 06:35:00,49.4,46.0,30.01,West,274,0.0,2.0,88,0.00,,,0.00,16,Wunderground v.1.15,2013-06-15 10:35:00,
2013-06-15 06:36:00,49.4,46.0,30.01,West,274,0.0,2.0,88,0.00,,,0.00,16,Wunderground v.1.15,2013-06-15 10:36:00,
2013-06-15 06:38:00,49.5,45.8,30.01,West,274,0.0,2.0,87,0.00,,,0.00,16,Wunderground v.1.15,2013-06-15 10:38:00,
2013-06-15 06:39:00,49.6,45.9,30.01,West,274,0.0,2.0,87,0.00,,,0.00,16,Wunderground v.1.15,2013-06-15 10:39:00,
2013-06-15 06:42:00,49.7,46.0,30.01,West,274,0.0,2.0,87,0.00,,,0.00,16,Wunderground v.1.15,2013-06-15 10:42:00,
2013-06-15 06:43:00,49.7,45.7,30.01,West,274,0.0,2.0,86,0.00,,,0.00,16,Wunderground v.1.15,2013-06-15 10:43:00,
2013-06-15 06:46:00,49.8,45.8,30.01,West,274,0.0,2.0,86,0.00,,,0.00,16,Wunderground v.1.15,2013-06-15 10:46:00,
2013-06-15 06:49:00,49.9,45.9,30.02,West,274,0.0,2.0,86,0.00,,,0.00,18,Wunderground v.1.15,2013-06-15 10:49:00,
2013-06-15 06:50:00,49.9,45.9,30.02,West,274,0.0,2.0,86,0.00,,,0.00,18,Wunderground v.1.15,2013-06-15 10:50:00,
2013-06-15 06:52:00,50.0,45.7,30.02,West,274,0.0,2.0,85,0.00,,,0.00,16,Wunderground v.1.15,2013-06-15 10:52:00,
2013-06-15 06:53:00,50.0,46.0,30.02,West,274,0.0,2.0,86,0.00,,,0.00,16,Wunderground v.1.15,2013-06-15 10:53:00,
2013-06-15 06:54:00,50.0,46.0,30.02,West,274,0.0,2.0,86,0.00,,,0.00,16,Wunderground v.1.15,2013-06-15 10:54:00,
2013-06-15 06:55:00,50.1,46.1,30.02,West,274,0.0,2.0,86,0.00,,,0.00,16,Wunderground v.1.15,2013-06-15 10:55:00,
2013-06-15 06:58:00,50.1,46.1,30.03,West,274,0.0,2.0,86,0.00,,,0.00,16,Wunderground v.1.15,2013-06-15 10:58:00,
2013-06-15 07:00:00,50.2,46.2,30.03,West,274,0.0,2.0,86,0.00,,,0.00,14,Wunderground v.1.15,2013-06-15 11:00:00,
2013-06-15 07:01:00,50.3,46.3,30.03,West,274,0.0,2.0,86,0.00,,,0.00,14,Wunderground v.1.15,2013-06-15 11:01:00,
2013-06-15 07:02:00,50.3,46.3,30.03,West,274,0.0,2.0,86,0.00,,,0.00,16,Wunderground v.1.15,2013-06-15 11:02:00,
2013-06-15 07:03:00,50.3,46.3,30.03,West,274,0.0,2.0,86,0.00,,,0.00,16,Wunderground v.1.15,2013-06-15 11:03:00,
2013-06-15 07:07:00,50.4,46.4,30.04,West,274,0.0,2.0,86,0.00,,,0.00,16,Wunderground v.1.15,2013-06-15 11:07:00,
2013-06-15 07:09:00,50.5,46.5,30.04,West,274,0.0,2.0,86,0.00,,,0.00,18,Wunderground v.1.15,2013-06-15 11:09:00,
2013-06-15 07:10:00,50.5,46.5,30.04,West,274,0.0,2.0,86,0.00,,,0.00,19,Wunderground v.1.15,2013-06-15 11:10:00,
2013-06-15 07:11:00,50.5,46.5,30.04,West,274,0.0,2.0,86,0.00,,,0.00,19,Wunderground v.1.15,2013-06-15 11:11:00,
2013-06-15 07:15:00,50.6,46.6,30.04,West,274,0.0,2.0,86,0.00,,,0.00,25,Wunderground v.1.15,2013-06-15 11:15:00,
2013-06-15 07:18:00,50.5,46.2,30.04,West,274,0.0,2.0,85,0.00,,,0.00,32,Wunderground v.1.15,2013-06-15 11:18:00,
2013-06-15 07:19:00,50.6,46.3,30.03,West,274,0.0,2.0,85,0.00,,,0.00,33,Wunderground v.1.15,2013-06-15 11:19:00,
2013-06-15 07:21:00,50.6,46.3,30.03,West,274,0.0,2.0,85,0.00,,,0.00,39,Wunderground v.1.15,2013-06-15 11:21:00,
2013-06-15 07:23:00,50.6,46.3,30.03,West,274,0.0,2.0,85,0.00,,,0.00,42,Wunderground v.1.15,2013-06-15 11:23:00,
2013-06-15 07:24:00,50.6,46.3,30.03,West,274,0.0,2.0,85,0.00,,,0.00,42,Wunderground v.1.15,2013-06-15 11:24:00,
2013-06-15 07:27:00,50.6,46.3,30.04,West,274,0.0,2.0,85,0.00,,,0.00,44,Wunderground v.1.15,2013-06-15 11:27:00,
2013-06-15 07:30:00,50.7,46.4,30.03,West,274,0.0,2.0,85,0.00,,,0.00,46,Wunderground v.1.15,2013-06-15 11:30:00,
2013-06-15 07:31:00,50.7,46.7,30.03,West,274,0.0,2.0,86,0.00,,,0.00,47,Wunderground v.1.15,2013-06-15 11:31:00,
2013-06-15 07:33:00,50.7,46.7,30.03,West,274,0.0,2.0,86,0.00,,,0.00,47,Wunderground v.1.15,2013-06-15 11:33:00,
2013-06-15 07:36:00,50.8,46.8,30.03,West,274,0.0,2.0,86,0.00,,,0.00,53,Wunderground v.1.15,2013-06-15 11:36:00,
2013-06-15 07:37:00,50.8,46.5,30.03,West,274,0.0,2.0,85,0.00,,,0.00,53,Wunderground v.1.15,2013-06-15 11:37:00,
2013-06-15 07:39:00,50.9,46.6,30.03,West,274,0.0,2.0,85,0.00,,,0.00,54,Wunderground v.1.15,2013-06-15 11:39:00,
2013-06-15 07:40:00,50.9,46.6,30.03,West,274,0.0,2.0,85,0.00,,,0.00,56,Wunderground v.1.15,2013-06-15 11:40:00,
2013-06-15 07:44:00,51.0,46.6,30.03,West,274,0.0,2.0,85,0.00,,,0.00,54,Wunderground v.1.15,2013-06-15 11:44:00,
2013-06-15 07:45:00,51.0,46.6,30.03,West,274,0.0,2.0,85,0.00,,,0.00,56,Wunderground v.1.15,2013-06-15 11:45:00,
2013-06-15 07:46:00,51.0,46.6,30.03,West,274,0.0,2.0,85,0.00,,,0.00,58,Wunderground v.1.15,2013-06-15 11:46:00,
2013-06-15 07:48:00,51.1,46.7,30.03,West,274,0.0,2.0,85,0.00,,,0.00,62,Wunderground v.1.15,2013-06-15 11:48:00,
2013-06-15 07:50:00,51.2,46.8,30.04,West,274,0.0,2.0,85,0.00,,,0.00,62,Wunderground v.1.15,2013-06-15 11:50:00,
2013-06-15 07:51:00,51.3,46.9,30.04,West,274,0.0,2.0,85,0.00,,,0.00,62,Wunderground v.1.15,2013-06-15 11:51:00,
2013-06-15 07:52:00,51.3,46.9,30.04,West,274,0.0,2.0,85,0.00,,,0.00,65,Wunderground v.1.15,2013-06-15 11:52:00,
2013-06-15 07:53:00,51.4,47.0,30.04,West,274,0.0,2.0,85,0.00,,,0.00,67,Wunderground v.1.15,2013-06-15 11:53:00,
2013-06-15 07:56:00,51.5,47.1,30.04,West,274,0.0,2.0,85,0.00,,,0.00,69,Wunderground v.1.15,2013-06-15 11:56:00,
2013-06-15 07:57:00,51.5,47.1,30.03,West,274,0.0,2.0,85,0.00,,,0.00,72,Wunderground v.1.15,2013-06-15 11:57:00,
2013-06-15 07:59:00,51.6,47.2,30.03,West,274,0.0,2.0,85,0.00,,,0.00,79,Wunderground v.1.15,2013-06-15 11:59:00,
2013-06-15 08:01:00,51.7,47.3,30.03,West,274,0.0,2.0,85,0.00,,,0.00,83,Wunderground v.1.15,2013-06-15 12:01:00,
2013-06-15 08:03:00,51.8,47.4,30.03,West,274,0.0,2.0,85,0.00,,,0.00,83,Wunderground v.1.15,2013-06-15 12:03:00,
2013-06-15 08:04:00,51.8,47.4,30.03,West,274,0.0,2.0,85,0.00,,,0.00,83,Wunderground v.1.15,2013-06-15 12:04:00,
2013-06-15 08:07:00,51.9,47.5,30.03,West,274,0.0,2.0,85,0.00,,,0.00,77,Wunderground v.1.15,2013-06-15 12:07:00,
2013-06-15 08:08:00,52.0,47.6,30.03,West,274,0.0,2.0,85,0.00,,,0.00,76,Wunderground v.1.15,2013-06-15 12:08:00,
2013-06-15 08:09:00,52.0,47.6,30.03,West,274,0.0,2.0,85,0.00,,,0.00,76,Wunderground v.1.15,2013-06-15 12:09:00,
2013-06-15 08:10:00,52.1,47.7,30.03,West,274,0.0,2.0,85,0.00,,,0.00,77,Wunderground v.1.15,2013-06-15 12:10:00,
2013-06-15 08:13:00,52.2,47.8,30.03,West,274,0.0,2.0,85,0.00,,,0.00,74,Wunderground v.1.15,2013-06-15 12:13:00,
2013-06-15 08:15:00,52.3,47.9,30.03,West,274,0.0,2.0,85,0.00,,,0.00,74,Wunderground v.1.15,2013-06-15 12:15:00,
2013-06-15 08:18:00,52.4,48.0,30.04,West,274,0.0,2.0,85,0.00,,,0.00,74,Wunderground v.1.15,2013-06-15 12:18:00,
2013-06-15 08:22:00,52.6,48.2,30.04,West,274,0.0,2.0,85,0.00,,,0.00,79,Wunderground v.1.15,2013-06-15 12:22:00,
2013-06-15 08:26:00,52.8,48.1,30.04,West,274,0.0,2.0,84,0.00,,,0.00,77,Wunderground v.1.15,2013-06-15 12:26:00,
2013-06-15 08:28:00,52.9,48.2,30.04,West,274,0.0,2.0,84,0.00,,,0.00,74,Wunderground v.1.15,2013-06-15 12:28:00,
2013-06-15 08:33:00,53.1,48.4,30.04,West,274,0.0,2.0,84,0.00,,,0.00,86,Wunderground v.1.15,2013-06-15 12:33:00,
2013-06-15 08:34:00,53.2,48.5,30.04,West,274,0.0,2.0,84,0.00,,,0.00,84,Wunderground v.1.15,2013-06-15 12:34:00,
2013-06-15 08:36:00,53.2,48.5,30.04,West,274,0.0,2.0,84,0.00,,,0.00,86,Wunderground v.1.15,2013-06-15 12:36:00,
2013-06-15 08:38:00,53.3,48.3,30.04,West,274,0.0,2.0,83,0.00,,,0.00,84,Wunderground v.1.15,2013-06-15 12:38:00,
2013-06-15 08:40:00,53.4,48.4,30.04,West,274,0.0,2.0,83,0.00,,,0.00,88,Wunderground v.1.15,2013-06-15 12:40:00,
2013-06-15 08:43:00,53.5,48.5,30.04,West,274,0.0,2.0,83,0.00,,,0.00,83,Wunderground v.1.15,2013-06-15 12:43:00,
2013-06-15 08:45:00,53.6,48.2,30.04,West,274,0.0,2.0,82,0.00,,,0.00,83,Wunderground v.1.15,2013-06-15 12:45:00,
2013-06-15 08:46:00,53.6,48.2,30.04,West,274,0.0,2.0,82,0.00,,,0.00,84,Wunderground v.1.15,2013-06-15 12:46:00,
2013-06-15 08:48:00,53.7,48.3,30.04,West,274,0.0,2.0,82,0.00,,,0.00,93,Wunderground v.1.15,2013-06-15 12:48:00,
2013-06-15 08:51:00,53.7,48.0,30.04,West,274,0.0,2.0,81,0.00,,,0.00,102,Wunderground v.1.15,2013-06-15 12:51:00,
2013-06-15 08:53:00,53.8,48.4,30.03,West,274,0.0,2.0,82,0.00,,,0.00,107,Wunderground v.1.15,2013-06-15 12:53:00,
2013-06-15 08:54:00,53.8,48.4,30.03,West,274,0.0,2.0,82,0.00,,,0.00,109,Wunderground v.1.15,2013-06-15 12:54:00,
2013-06-15 08:55:00,53.9,48.5,30.03,West,274,0.0,2.0,82,0.00,,,0.00,107,Wunderground v.1.15,2013-06-15 12:55:00,
2013-06-15 08:57:00,54.0,48.6,30.03,West,274,0.0,2.0,82,0.00,,,0.00,104,Wunderground v.1.15,2013-06-15 12:57:00,
2013-06-15 09:00:00,54.2,48.8,30.03,West,274,0.0,2.0,82,0.00,,,0.00,105,Wunderground v.1.15,2013-06-15 13:00:00,
2013-06-15 09:01:00,54.2,48.8,30.03,West,274,0.0,2.0,82,0.00,,,0.00,105,Wunderground v.1.15,2013-06-15 13:01:00,
2013-06-15 09:02:00,54.3,48.9,30.03,West,274,0.0,2.0,82,0.00,,,0.00,109,Wunderground v.1.15,2013-06-15 13:02:00,
2013-06-15 09:05:00,54.4,49.0,30.03,West,274,0.0,2.0,82,0.00,,,0.00,118,Wunderground v.1.15,2013-06-15 13:05:00,
2013-06-15 09:08:00,54.6,49.2,30.03,West,274,0.0,2.0,82,0.00,,,0.00,128,Wunderground v.1.15,2013-06-15 13:08:00,
2013-06-15 09:09:00,54.7,49.0,30.03,West,274,0.0,2.0,81,0.00,,,0.00,125,Wunderground v.1.15,2013-06-15 13:09:00,
2013-06-15 09:10:00,54.8,49.1,30.03,West,274,0.0,2.0,81,0.00,,,0.00,125,Wunderground v.1.15,2013-06-15 13:10:00,
2013-06-15 09:13:00,55.0,49.3,30.03,West,274,0.0,2.0,81,0.00,,,0.00,121,Wunderground v.1.15,2013-06-15 13:13:00,
2013-06-15 09:14:00,55.0,49.3,30.03,West,274,0.0,2.0,81,0.00,,,0.00,120,Wunderground v.1.15,2013-06-15 13:14:00,
2013-06-15 09:15:00,55.1,49.4,30.03,West,274,0.0,2.0,81,0.00,,,0.00,118,Wunderground v.1.15,2013-06-15 13:15:00,
2013-06-15 09:16:00,55.1,49.4,30.03,West,274,0.0,2.0,81,0.00,,,0.00,116,Wunderground v.1.15,2013-06-15 13:16:00,
2013-06-15 09:17:00,55.2,49.1,30.03,West,274,0.0,2.0,80,0.00,,,0.00,111,Wunderground v.1.15,2013-06-15 13:17:00,
2013-06-15 09:19:00,55.3,49.2,30.03,West,274,0.0,2.0,80,0.00,,,0.00,107,Wunderground v.1.15,2013-06-15 13:19:00,
2013-06-15 09:20:00,55.4,49.0,30.03,West,274,0.0,2.0,79,0.00,,,0.00,111,Wunderground v.1.15,2013-06-15 13:20:00,
2013-06-15 09:22:00,55.5,48.8,30.03,West,274,0.0,2.0,78,0.00,,,0.00,134,Wunderground v.1.15,2013-06-15 13:22:00,
2013-06-15 09:24:00,55.5,48.1,30.03,West,274,0.0,2.0,76,0.00,,,0.00,139,Wunderground v.1.15,2013-06-15 13:24:00,
2013-06-15 09:28:00,55.8,48.0,30.03,West,274,0.0,2.0,75,0.00,,,0.00,149,Wunderground v.1.15,2013-06-15 13:28:00,
2013-06-15 09:29:00,55.8,48.0,30.03,West,274,0.0,2.0,75,0.00,,,0.00,149,Wunderground v.1.15,2013-06-15 13:29:00,
2013-06-15 09:30:00,55.8,47.6,30.03,West,274,0.0,2.0,74,0.00,,,0.00,149,Wunderground v.1.15,2013-06-15 13:30:00,
2013-06-15 09:33:00,55.9,47.4,30.03,West,274,0.0,2.0,73,0.00,,,0.00,169,Wunderground v.1.15,2013-06-15 13:33:00,
2013-06-15 09:35:00,56.0,46.7,30.03,West,274,0.0,2.0,71,0.00,,,0.00,192,Wunderground v.1.15,2013-06-15 13:35:00,
2013-06-15 09:36:00,56.1,46.4,30.03,West,274,0.0,2.0,70,0.00,,,0.00,178,Wunderground v.1.15,2013-06-15 13:36:00,
2013-06-15 09:38:00,56.2,46.5,30.03,West,274,0.0,2.0,70,0.00,,,0.00,153,Wunderground v.1.15,2013-06-15 13:38:00,
2013-06-15 09:41:00,56.3,46.3,30.03,West,274,0.0,2.0,69,0.00,,,0.00,148,Wunderground v.1.15,2013-06-15 13:41:00,
2013-06-15 09:42:00,56.4,46.4,30.03,West,274,0.0,2.0,69,0.00,,,0.00,142,Wunderground v.1.15,2013-06-15 13:42:00,
2013-06-15 09:43:00,56.4,46.4,30.03,West,274,0.0,2.0,69,0.00,,,0.00,142,Wunderground v.1.15,2013-06-15 13:43:00,
2013-06-15 09:44:00,56.5,46.4,30.03,West,274,0.0,2.0,69,0.00,,,0.00,151,Wunderground v.1.15,2013-06-15 13:44:00,
2013-06-15 09:47:00,56.7,47.0,30.02,West,274,0.0,2.0,70,0.00,,,0.00,156,Wunderground v.1.15,2013-06-15 13:47:00,
2013-06-15 09:48:00,56.7,46.6,30.02,West,274,0.0,2.0,69,0.00,,,0.00,155,Wunderground v.1.15,2013-06-15 13:48:00,
2013-06-15 09:51:00,56.9,46.8,30.02,West,274,0.0,2.0,69,0.00,,,0.00,174,Wunderground v.1.15,2013-06-15 13:51:00,
2013-06-15 09:54:00,57.1,47.0,30.02,West,274,0.0,2.0,69,0.00,,,0.00,185,Wunderground v.1.15,2013-06-15 13:54:00,
2013-06-15 09:55:00,57.1,47.0,30.02,West,274,0.0,2.0,69,0.00,,,0.00,172,Wunderground v.1.15,2013-06-15 13:55:00,
2013-06-15 09:56:00,57.2,47.1,30.02,West,274,0.0,2.0,69,0.00,,,0.00,167,Wunderground v.1.15,2013-06-15 13:56:00,
2013-06-15 10:01:00,57.5,47.4,30.02,West,274,0.0,2.0,69,0.00,,,0.00,135,Wunderground v.1.15,2013-06-15 14:01:00,
2013-06-15 10:03:00,57.6,47.5,30.02,West,274,0.0,2.0,69,0.00,,,0.00,132,Wunderground v.1.15,2013-06-15 14:03:00,
2013-06-15 10:04:00,57.6,47.5,30.02,West,274,0.0,2.0,69,0.00,,,0.00,134,Wunderground v.1.15,2013-06-15 14:04:00,
2013-06-15 10:05:00,57.7,48.0,30.02,West,274,0.0,2.0,70,0.00,,,0.00,137,Wunderground v.1.15,2013-06-15 14:05:00,
2013-06-15 10:08:00,57.8,48.1,30.02,West,274,0.0,2.0,70,0.00,,,0.00,144,Wunderground v.1.15,2013-06-15 14:08:00,
2013-06-15 10:09:00,57.8,48.5,30.02,West,274,0.0,2.0,71,0.00,,,0.00,149,Wunderground v.1.15,2013-06-15 14:09:00,
2013-06-15 10:11:00,57.9,48.2,30.02,West,274,0.0,2.0,70,0.00,,,0.00,162,Wunderground v.1.15,2013-06-15 14:11:00,
2013-06-15 10:12:00,58.0,48.3,30.02,West,274,0.0,2.0,70,0.00,,,0.00,169,Wunderground v.1.15,2013-06-15 14:12:00,
2013-06-15 10:15:00,58.1,48.7,30.01,West,274,0.0,2.0,71,0.00,,,0.00,206,Wunderground v.1.15,2013-06-15 14:15:00,
2013-06-15 10:16:00,58.2,48.5,30.01,West,274,0.0,2.0,70,0.00,,,0.00,197,Wunderground v.1.15,2013-06-15 14:16:00,
2013-06-15 10:18:00,58.3,48.6,30.01,West,274,0.0,2.0,70,0.00,,,0.00,236,Wunderground v.1.15,2013-06-15 14:18:00,
2013-06-15 10:21:00,58.4,48.7,30.01,West,274,0.0,2.0,70,0.00,,,0.00,251,Wunderground v.1.15,2013-06-15 14:21:00,
2013-06-15 10:22:00,58.5,48.7,30.01,West,274,0.0,2.0,70,0.00,,,0.00,251,Wunderground v.1.15,2013-06-15 14:22:00,
2013-06-15 10:23:00,58.6,48.5,30.01,West,274,0.0,2.0,69,0.00,,,0.00,316,Wunderground v.1.15,2013-06-15 14:23:00,
2013-06-15 10:26:00,58.9,49.1,30.01,West,274,0.0,2.0,70,0.00,,,0.00,374,Wunderground v.1.15,2013-06-15 14:26:00,
2013-06-15 10:27:00,59.0,49.2,30.01,West,274,0.0,2.0,70,0.00,,,0.00,366,Wunderground v.1.15,2013-06-15 14:27:00,
2013-06-15 10:28:00,59.1,49.3,30.01,West,274,0.0,2.0,70,0.00,,,0.00,388,Wunderground v.1.15,2013-06-15 14:28:00,
2013-06-15 10:32:00,59.5,49.3,30.00,West,274,0.0,2.0,69,0.00,,,0.00,445,Wunderground v.1.15,2013-06-15 14:32:00,
2013-06-15 10:33:00,59.6,49.0,30.01,West,274,0.0,2.0,68,0.00,,,0.00,441,Wunderground v.1.15,2013-06-15 14:33:00,
2013-06-15 10:34:00,59.7,48.7,30.00,West,274,0.0,2.0,67,0.00,,,0.00,418,Wunderground v.1.15,2013-06-15 14:34:00,
2013-06-15 10:35:00,59.8,48.8,30.00,West,274,0.0,2.0,67,0.00,,,0.00,369,Wunderground v.1.15,2013-06-15 14:35:00,
2013-06-15 10:37:00,60.0,48.6,30.00,West,274,0.0,2.0,66,0.00,,,0.00,179,Wunderground v.1.15,2013-06-15 14:37:00,
2013-06-15 10:40:00,60.3,48.9,30.00,West,274,0.0,2.0,66,0.00,,,0.00,139,Wunderground v.1.15,2013-06-15 14:40:00,
2013-06-15 10:41:00,60.3,48.9,30.00,West,274,0.0,2.0,66,0.00,,,0.00,134,Wunderground v.1.15,2013-06-15 14:41:00,
2013-06-15 10:42:00,60.4,48.6,30.00,West,274,0.0,2.0,65,0.00,,,0.00,130,Wunderground v.1.15,2013-06-15 14:42:00,
2013-06-15 10:45:00,60.5,48.3,30.00,West,274,0.0,2.0,64,0.00,,,0.00,148,Wunderground v.1.15,2013-06-15 14:45:00,
2013-06-15 10:48:00,60.6,47.9,29.99,West,274,0.0,2.0,63,0.00,,,0.00,209,Wunderground v.1.15,2013-06-15 14:48:00,
2013-06-15 10:49:00,60.6,47.5,29.99,West,274,0.0,2.0,62,0.00,,,0.00,271,Wunderground v.1.15,2013-06-15 14:49:00,
2013-06-15 10:52:00,60.7,48.0,29.99,West,274,0.0,2.0,63,0.00,,,0.00,288,Wunderground v.1.15,2013-06-15 14:52:00,
2013-06-15 10:53:00,60.8,48.1,29.99,West,274,0.0,2.0,63,0.00,,,0.00,206,Wunderground v.1.15,2013-06-15 14:53:00,
2013-06-15 10:56:00,60.9,47.4,29.99,West,274,0.0,2.0,61,0.00,,,0.00,197,Wunderground v.1.15,2013-06-15 14:56:00,
2013-06-15 10:57:00,60.9,46.5,29.99,West,274,0.0,2.0,59,0.00,,,0.00,188,Wunderground v.1.15,2013-06-15 14:57:00,
2013-06-15 10:58:00,61.0,46.6,29.99,West,274,0.0,2.0,59,0.00,,,0.00,141,Wunderground v.1.15,2013-06-15 14:58:00,
2013-06-15 10:59:00,61.0,46.1,29.99,West,274,0.0,2.0,58,0.00,,,0.00,123,Wunderground v.1.15,2013-06-15 14:59:00,
2013-06-15 11:02:00,61.1,46.7,29.99,West,274,0.0,2.0,59,0.00,,,0.00,114,Wunderground v.1.15,2013-06-15 15:02:00,
2013-06-15 11:06:00,61.3,46.4,29.99,West,274,0.0,2.0,58,0.00,,,0.00,90,Wunderground v.1.15,2013-06-15 15:06:00,
2013-06-15 11:07:00,61.3,46.4,29.99,West,274,0.0,2.0,58,0.00,,,0.00,91,Wunderground v.1.15,2013-06-15 15:07:00,
2013-06-15 11:08:00,61.3,46.4,29.99,West,274,0.0,2.0,58,0.00,,,0.00,93,Wunderground v.1.15,2013-06-15 15:08:00,
2013-06-15 11:12:00,61.4,47.4,29.99,West,274,0.0,2.0,60,0.00,,,0.00,109,Wunderground v.1.15,2013-06-15 15:12:00,
2013-06-15 11:13:00,61.4,47.8,29.99,West,274,0.0,2.0,61,0.00,,,0.00,116,Wunderground v.1.15,2013-06-15 15:13:00,
2013-06-15 11:14:00,61.4,47.8,29.99,West,274,0.0,2.0,61,0.00,,,0.00,123,Wunderground v.1.15,2013-06-15 15:14:00,
2013-06-15 11:18:00,61.5,47.9,29.98,West,274,0.0,2.0,61,0.00,,,0.00,128,Wunderground v.1.15,2013-06-15 15:18:00,
2013-06-15 11:19:00,61.5,47.9,29.98,West,274,0.0,2.0,61,0.00,,,0.00,125,Wunderground v.1.15,2013-06-15 15:19:00,
2013-06-15 11:22:00,61.5,47.5,29.98,West,274,0.0,2.0,60,0.00,,,0.00,114,Wunderground v.1.15,2013-06-15 15:22:00,
2013-06-15 11:23:00,61.6,48.0,29.98,West,274,0.0,2.0,61,0.00,,,0.00,114,Wunderground v.1.15,2013-06-15 15:23:00,
2013-06-15 11:25:00,61.6,47.1,29.98,West,274,0.0,2.0,59,0.00,,,0.00,109,Wunderground v.1.15,2013-06-15 15:25:00,
2013-06-15 11:28:00,61.7,48.1,29.98,West,274,0.0,2.0,61,0.00,,,0.00,113,Wunderground v.1.15,2013-06-15 15:28:00,
2013-06-15 11:30:00,61.7,47.7,29.97,West,274,0.0,2.0,60,0.00,,,0.00,130,Wunderground v.1.15,2013-06-15 15:30:00,
2013-06-15 11:33:00,61.8,47.3,29.97,West,274,0.0,2.0,59,0.00,,,0.00,148,Wunderground v.1.15,2013-06-15 15:33:00,
2013-06-15 11:36:00,61.8,46.9,29.97,West,274,0.0,2.0,58,0.00,,,0.00,146,Wunderground v.1.15,2013-06-15 15:36:00,
2013-06-15 11:37:00,61.9,47.0,29.97,West,274,0.0,2.0,58,0.00,,,0.00,144,Wunderground v.1.15,2013-06-15 15:37:00,
2013-06-15 11:38:00,61.9,47.0,29.97,West,274,0.0,2.0,58,0.00,,,0.00,144,Wunderground v.1.15,2013-06-15 15:38:00,
2013-06-15 11:40:00,62.0,48.0,29.97,West,274,0.0,2.0,60,0.00,,,0.00,153,Wunderground v.1.15,2013-06-15 15:40:00,
2013-06-15 11:43:00,62.2,48.1,29.97,West,274,0.0,2.0,60,0.00,,,0.00,146,Wunderground v.1.15,2013-06-15 15:43:00,
2013-06-15 11:44:00,62.2,47.7,29.97,West,274,0.0,2.0,59,0.00,,,0.00,146,Wunderground v.1.15,2013-06-15 15:44:00,
2013-06-15 11:46:00,62.3,47.8,29.97,West,274,0.0,2.0,59,0.00,,,0.00,162,Wunderground v.1.15,2013-06-15 15:46:00,
2013-06-15 11:49:00,62.5,48.9,29.97,West,274,0.0,2.0,61,0.00,,,0.00,176,Wunderground v.1.15,2013-06-15 15:49:00,
2013-06-15 11:52:00,62.6,48.5,29.97,West,274,0.0,2.0,60,0.00,,,0.00,186,Wunderground v.1.15,2013-06-15 15:52:00,
2013-06-15 11:54:00,62.6,47.6,29.98,West,274,0.0,2.0,58,0.00,,,0.00,174,Wunderground v.1.15,2013-06-15 15:54:00,
2013-06-15 11:56:00,62.7,48.6,29.97,West,274,0.0,2.0,60,0.00,,,0.00,158,Wunderground v.1.15,2013-06-15 15:56:00,
2013-06-15 11:58:00,62.8,49.1,29.97,West,274,0.0,2.0,61,0.00,,,0.00,137,Wunderground v.1.15,2013-06-15 15:58:00,
2013-06-15 11:59:00,62.8,49.1,29.98,West,274,0.0,2.0,61,0.00,,,0.00,137,Wunderground v.1.15,2013-06-15 15:59:00,
2013-06-15 12:03:00,62.9,48.8,29.97,West,274,0.0,2.0,60,0.00,,,0.00,134,Wunderground v.1.15,2013-06-15 16:03:00,
2013-06-15 12:04:00,62.9,47.9,29.97,West,274,0.0,2.0,58,0.00,,,0.00,125,Wunderground v.1.15,2013-06-15 16:04:00,
2013-06-15 12:05:00,62.9,47.0,29.97,West,274,0.0,2.0,56,0.00,,,0.00,120,Wunderground v.1.15,2013-06-15 16:05:00,
2013-06-15 12:08:00,62.9,45.5,29.97,West,274,0.0,2.0,53,0.00,,,0.00,90,Wunderground v.1.15,2013-06-15 16:08:00,
2013-06-15 12:09:00,62.9,46.0,29.97,West,274,0.0,2.0,54,0.00,,,0.00,74,Wunderground v.1.15,2013-06-15 16:09:00,
2013-06-15 12:10:00,62.9,45.5,29.97,West,274,0.0,2.0,53,0.00,,,0.00,74,Wunderground v.1.15,2013-06-15 16:10:00,
2013-06-15 12:13:00,62.9,46.0,29.97,West,274,0.0,2.0,54,0.00,,,0.00,93,Wunderground v.1.15,2013-06-15 16:13:00,
2013-06-15 12:16:00,62.9,46.0,29.97,West,274,0.0,2.0,54,0.00,,,0.00,84,Wunderground v.1.15,2013-06-15 16:16:00,
2013-06-15 12:19:00,62.9,46.5,29.97,West,274,0.0,2.0,55,0.00,,,0.00,104,Wunderground v.1.15,2013-06-15 16:19:00,
2013-06-15 12:22:00,62.9,47.4,29.96,West,274,0.0,2.0,57,0.00,,,0.00,123,Wunderground v.1.15,2013-06-15 16:22:00,
2013-06-15 12:23:00,62.9,47.4,29.96,West,274,0.0,2.0,57,0.00,,,0.00,123,Wunderground v.1.15,2013-06-15 16:23:00,
2013-06-15 12:24:00,62.9,47.9,29.96,West,274,0.0,2.0,58,0.00,,,0.00,125,Wunderground v.1.15,2013-06-15 16:24:00,
2013-06-15 12:25:00,62.9,47.9,29.96,West,274,0.0,2.0,58,0.00,,,0.00,128,Wunderground v.1.15,2013-06-15 16:25:00,
2013-06-15 12:29:00,62.9,48.3,29.96,West,274,0.0,2.0,59,0.00,,,0.00,132,Wunderground v.1.15,2013-06-15 16:29:00,
2013-06-15 12:30:00,62.9,48.8,29.96,West,274,0.0,2.0,60,0.00,,,0.00,120,Wunderground v.1.15,2013-06-15 16:30:00,
2013-06-15 12:31:00,62.9,48.8,29.96,West,274,0.0,2.0,60,0.00,,,0.00,111,Wunderground v.1.15,2013-06-15 16:31:00,
2013-06-15 12:34:00,63.0,48.9,29.96,West,274,0.0,2.0,60,0.00,,,0.00,93,Wunderground v.1.15,2013-06-15 16:34:00,
2013-06-15 12:35:00,63.0,48.4,29.96,West,274,0.0,2.0,59,0.00,,,0.00,95,Wunderground v.1.15,2013-06-15 16:35:00,
2013-06-15 12:37:00,63.0,48.9,29.96,West,274,0.0,2.0,60,0.00,,,0.00,93,Wunderground v.1.15,2013-06-15 16:37:00,
2013-06-15 12:39:00,63.0,49.3,29.96,West,274,0.0,2.0,61,0.00,,,0.00,93,Wunderground v.1.15,2013-06-15 16:39:00,
2013-06-15 12:40:00,63.0,49.8,29.96,West,274,0.0,2.0,62,0.00,,,0.00,98,Wunderground v.1.15,2013-06-15 16:40:00,
2013-06-15 12:43:00,63.0,49.3,29.96,West,274,0.0,2.0,61,0.00,,,0.00,116,Wunderground v.1.15,2013-06-15 16:43:00,
2013-06-15 12:46:00,63.0,49.8,29.96,West,274,0.0,2.0,62,0.00,,,0.00,125,Wunderground v.1.15,2013-06-15 16:46:00,
2013-06-15 12:47:00,63.0,50.2,29.96,West,274,0.0,2.0,63,0.00,,,0.00,125,Wunderground v.1.15,2013-06-15 16:47:00,
2013-06-15 12:50:00,63.0,50.6,29.96,West,274,0.0,2.0,64,0.00,,,0.00,135,Wunderground v.1.15,2013-06-15 16:50:00,
2013-06-15 12:51:00,63.0,51.0,29.96,West,274,0.0,2.0,65,0.00,,,0.00,137,Wunderground v.1.15,2013-06-15 16:51:00,
2013-06-15 12:52:00,63.0,51.0,29.96,West,274,0.0,2.0,65,0.00,,,0.00,141,Wunderground v.1.15,2013-06-15 16:52:00,
2013-06-15 12:56:00,63.0,50.6,29.96,West,274,0.0,2.0,64,0.00,,,0.00,176,Wunderground v.1.15,2013-06-15 16:56:00,
2013-06-15 12:57:00,63.1,50.3,29.96,West,274,0.0,2.0,63,0.00,,,0.00,183,Wunderground v.1.15,2013-06-15 16:57:00,
2013-06-15 12:58:00,63.1,50.3,29.96,West,274,0.0,2.0,63,0.00,,,0.00,186,Wunderground v.1.15,2013-06-15 16:58:00,
2013-06-15 13:00:00,63.1,49.4,29.96,West,274,0.0,2.0,61,0.00,,,0.00,193,Wunderground v.1.15,2013-06-15 17:00:00,
2013-06-15 13:04:00,63.2,48.2,29.95,West,274,0.0,2.0,58,0.00,,,0.00,250,Wunderground v.1.15,2013-06-15 17:04:00,
2013-06-15 13:05:00,63.2,47.7,29.95,West,274,0.0,2.0,57,0.00,,,0.00,258,Wunderground v.1.15,2013-06-15 17:05:00,
2013-06-15 13:10:00,63.5,48.5,29.95,West,274,0.0,2.0,58,0.00,,,0.00,373,Wunderground v.1.15,2013-06-15 17:10:00,
2013-06-15 13:11:00,63.5,48.5,29.95,West,274,0.0,2.0,58,0.00,,,0.00,373,Wunderground v.1.15,2013-06-15 17:11:00,
2013-06-15 13:13:00,63.7,47.7,29.96,West,274,0.0,2.0,56,0.00,,,0.00,345,Wunderground v.1.15,2013-06-15 17:13:00,
2013-06-15 13:15:00,63.8,47.8,29.96,West,274,0.0,2.0,56,0.00,,,0.00,323,Wunderground v.1.15,2013-06-15 17:15:00,
2013-06-15 13:17:00,63.9,47.9,29.96,West,274,0.0,2.0,56,0.00,,,0.00,352,Wunderground v.1.15,2013-06-15 17:17:00,
2013-06-15 13:18:00,64.0,48.9,29.96,West,274,0.0,2.0,58,0.00,,,0.00,406,Wunderground v.1.15,2013-06-15 17:18:00,
2013-06-15 13:20:00,64.2,48.6,29.96,West,274,0.0,2.0,57,0.00,,,0.00,334,Wunderground v.1.15,2013-06-15 17:20:00,
2013-06-15 13:21:00,64.3,48.7,29.96,West,274,0.0,2.0,57,0.00,,,0.00,332,Wunderground v.1.15,2013-06-15 17:21:00,
2013-06-15 13:23:00,64.4,48.8,29.96,West,274,0.0,2.0,57,0.00,,,0.00,318,Wunderground v.1.15,2013-06-15 17:23:00,
2013-06-15 13:27:00,64.7,49.1,29.95,West,274,0.0,2.0,57,0.00,,,0.00,327,Wunderground v.1.15,2013-06-15 17:27:00,
2013-06-15 13:28:00,64.8,49.7,29.95,West,274,0.0,2.0,58,0.00,,,0.00,591,Wunderground v.1.15,2013-06-15 17:28:00,
2013-06-15 13:31:00,65.0,48.4,29.95,West,274,0.0,2.0,55,0.00,,,0.00,418,Wunderground v.1.15,2013-06-15 17:31:00,
2013-06-15 13:34:00,65.3,49.2,29.95,West,274,0.0,2.0,56,0.00,,,0.00,281,Wunderground v.1.15,2013-06-15 17:34:00,
2013-06-15 13:37:00,65.6,49.0,29.95,West,274,0.0,2.0,55,0.00,,,0.00,244,Wunderground v.1.15,2013-06-15 17:37:00,
2013-06-15 13:38:00,65.6,49.0,29.95,West,274,0.0,2.0,55,0.00,,,0.00,253,Wunderground v.1.15,2013-06-15 17:38:00,
2013-06-15 13:39:00,65.7,49.1,29.95,West,274,0.0,2.0,55,0.00,,,0.00,272,Wunderground v.1.15,2013-06-15 17:39:00,
2013-06-15 13:40:00,65.7,48.6,29.95,West,274,0.0,2.0,54,0.00,,,0.00,281,Wunderground v.1.15,2013-06-15 17:40:00,
2013-06-15 13:45:00,65.9,48.8,29.95,West,274,0.0,2.0,54,0.00,,,0.00,262,Wunderground v.1.15,2013-06-15 17:45:00,
2013-06-15 13:46:00,65.9,49.8,29.95,West,274,0.0,2.0,56,0.00,,,0.00,253,Wunderground v.1.15,2013-06-15 17:46:00,
2013-06-15 13:47:00,65.9,49.8,29.95,West,274,0.0,2.0,56,0.00,,,0.00,246,Wunderground v.1.15,2013-06-15 17:47:00,
2013-06-15 13:51:00,66.1,49.0,29.95,West,274,0.0,2.0,54,0.00,,,0.00,195,Wunderground v.1.15,2013-06-15 17:51:00,
2013-06-15 13:55:00,66.1,48.0,29.95,West,274,0.0,2.0,52,0.00,,,0.00,172,Wunderground v.1.15,2013-06-15 17:55:00,
2013-06-15 13:56:00,66.1,48.5,29.95,West,274,0.0,2.0,53,0.00,,,0.00,188,Wunderground v.1.15,2013-06-15 17:56:00,
2013-06-15 13:57:00,66.1,49.9,29.95,West,274,0.0,2.0,56,0.00,,,0.00,188,Wunderground v.1.15,2013-06-15 17:57:00,
2013-06-15 14:00:00,66.2,49.6,29.95,West,274,0.0,2.0,55,0.00,,,0.00,171,Wunderground v.1.15,2013-06-15 18:00:00,
2013-06-15 14:01:00,66.2,50.0,29.95,West,274,0.0,2.0,56,0.00,,,0.00,171,Wunderground v.1.15,2013-06-15 18:01:00,
2013-06-15 14:06:00,66.3,48.7,29.95,West,274,0.0,2.0,53,0.00,,,0.00,163,Wunderground v.1.15,2013-06-15 18:06:00,
2013-06-15 14:07:00,66.3,48.7,29.95,West,274,0.0,2.0,53,0.00,,,0.00,163,Wunderground v.1.15,2013-06-15 18:07:00,
2013-06-15 14:08:00,66.4,49.2,29.95,West,274,0.0,2.0,54,0.00,,,0.00,171,Wunderground v.1.15,2013-06-15 18:08:00,
2013-06-15 14:10:00,66.4,49.2,29.95,West,274,0.0,2.0,54,0.00,,,0.00,172,Wunderground v.1.15,2013-06-15 18:10:00,
2013-06-15 14:15:00,66.5,48.8,29.94,West,274,0.0,2.0,53,0.00,,,0.00,181,Wunderground v.1.15,2013-06-15 18:15:00,
2013-06-15 14:16:00,66.6,48.9,29.94,West,274,0.0,2.0,53,0.00,,,0.00,181,Wunderground v.1.15,2013-06-15 18:16:00,
2013-06-15 14:17:00,66.6,48.9,29.94,West,274,0.0,2.0,53,0.00,,,0.00,178,Wunderground v.1.15,2013-06-15 18:17:00,
2013-06-15 14:19:00,66.6,48.9,29.94,West,274,0.0,2.0,53,0.00,,,0.00,169,Wunderground v.1.15,2013-06-15 18:19:00,
2013-06-15 14:22:00,66.7,49.5,29.94,West,274,0.0,2.0,54,0.00,,,0.00,188,Wunderground v.1.15,2013-06-15 18:22:00,
2013-06-15 14:23:00,66.7,49.5,29.94,West,274,0.0,2.0,54,0.00,,,0.00,199,Wunderground v.1.15,2013-06-15 18:23:00,
2013-06-15 14:24:00,66.7,49.5,29.94,West,274,0.0,2.0,54,0.00,,,0.00,220,Wunderground v.1.15,2013-06-15 18:24:00,
2013-06-15 14:25:00,66.7,49.0,29.94,West,274,0.0,2.0,53,0.00,,,0.00,237,Wunderground v.1.15,2013-06-15 18:25:00,
2013-06-15 14:28:00,66.7,49.5,29.94,West,274,0.0,2.0,54,0.00,,,0.00,225,Wunderground v.1.15,2013-06-15 18:28:00,
2013-06-15 14:33:00,66.8,49.1,29.94,West,274,0.0,2.0,53,0.00,,,0.00,176,Wunderground v.1.15,2013-06-15 18:33:00,
2013-06-15 14:34:00,66.8,49.6,29.94,West,274,0.0,2.0,54,0.00,,,0.00,179,Wunderground v.1.15,2013-06-15 18:34:00,
2013-06-15 14:36:00,66.8,49.6,29.94,West,274,0.0,2.0,54,0.00,,,0.00,190,Wunderground v.1.15,2013-06-15 18:36:00,
2013-06-15 14:38:00,66.8,49.1,29.94,West,274,0.0,2.0,53,0.00,,,0.00,202,Wunderground v.1.15,2013-06-15 18:38:00,
2013-06-15 14:40:00,66.9,49.2,29.94,West,274,0.0,2.0,53,0.00,,,0.00,248,Wunderground v.1.15,2013-06-15 18:40:00,
2013-06-15 14:43:00,67.0,49.3,29.94,WNW,284,0.0,2.0,53,0.00,,,0.00,232,Wunderground v.1.15,2013-06-15 18:43:00,
2013-06-15 14:46:00,67.1,48.9,29.94,WNW,284,0.0,2.0,52,0.00,,,0.00,202,Wunderground v.1.15,2013-06-15 18:46:00,
2013-06-15 14:48:00,67.1,48.4,29.94,WNW,284,0.0,2.0,51,0.00,,,0.00,185,Wunderground v.1.15,2013-06-15 18:48:00,
2013-06-15 14:49:00,67.1,48.4,29.94,WNW,284,0.0,2.0,51,0.00,,,0.00,181,Wunderground v.1.15,2013-06-15 18:49:00,
2013-06-15 14:50:00,67.2,47.9,29.94,WNW,284,0.0,2.0,50,0.00,,,0.00,183,Wunderground v.1.15,2013-06-15 18:50:00,
2013-06-15 14:54:00,67.2,48.5,29.94,WNW,284,0.0,2.0,51,0.00,,,0.00,297,Wunderground v.1.15,2013-06-15 18:54:00,
2013-06-15 14:55:00,67.3,48.0,29.94,WNW,284,0.0,2.0,50,0.00,,,0.00,387,Wunderground v.1.15,2013-06-15 18:55:00,
2013-06-15 14:56:00,67.3,48.0,29.94,WNW,284,0.0,2.0,50,0.00,,,0.00,387,Wunderground v.1.15,2013-06-15 18:56:00,
2013-06-15 14:59:00,67.4,48.1,29.93,WNW,284,0.0,2.0,50,0.00,,,0.00,858,Wunderground v.1.15,2013-06-15 18:59:00,
2013-06-15 15:00:00,67.5,48.7,29.93,WNW,284,0.0,2.0,51,0.00,,,0.00,858,Wunderground v.1.15,2013-06-15 19:00:00,
2013-06-15 15:02:00,67.7,48.9,29.94,WNW,284,0.0,2.0,51,0.00,,,0.00,369,Wunderground v.1.15,2013-06-15 19:02:00,
2013-06-15 15:05:00,68.2,48.3,29.94,WNW,284,0.0,2.0,49,0.00,,,0.00,1079,Wunderground v.1.15,2013-06-15 19:05:00,
2013-06-15 15:06:00,68.4,49.0,29.94,North,11,0.0,2.0,50,0.00,,,0.00,1079,Wunderground v.1.15,2013-06-15 19:06:00,
2013-06-15 15:11:00,69.1,49.1,29.94,North,11,0.0,2.0,49,0.00,,,0.00,185,Wunderground v.1.15,2013-06-15 19:11:00,
2013-06-15 15:12:00,69.1,48.6,29.94,North,11,0.0,2.0,48,0.00,,,0.00,174,Wunderground v.1.15,2013-06-15 19:12:00,
2013-06-15 15:13:00,69.2,49.2,29.94,North,11,0.0,2.0,49,0.00,,,0.00,167,Wunderground v.1.15,2013-06-15 19:13:00,
2013-06-15 15:19:00,69.4,51.0,29.94,North,11,0.0,2.0,52,0.00,,,0.00,148,Wunderground v.1.15,2013-06-15 19:19:00,
2013-06-15 15:20:00,69.4,50.5,29.93,North,11,0.0,2.0,51,0.00,,,0.00,141,Wunderground v.1.15,2013-06-15 19:20:00,
2013-06-15 15:21:00,69.4,51.0,29.93,North,11,0.0,2.0,52,0.00,,,0.00,137,Wunderground v.1.15,2013-06-15 19:21:00,
2013-06-15 15:22:00,69.5,48.9,29.93,North,11,0.0,2.0,48,0.00,,,0.00,137,Wunderground v.1.15,2013-06-15 19:22:00,
2013-06-15 15:25:00,69.4,48.9,29.93,North,11,0.0,2.0,48,0.00,,,0.00,137,Wunderground v.1.15,2013-06-15 19:25:00,
2013-06-15 15:26:00,69.4,48.9,29.93,North,11,0.0,2.0,48,0.00,,,0.00,142,Wunderground v.1.15,2013-06-15 19:26:00,
2013-06-15 15:28:00,69.3,48.2,29.93,North,11,0.0,2.0,47,0.00,,,0.00,155,Wunderground v.1.15,2013-06-15 19:28:00,
2013-06-15 15:29:00,69.3,48.8,29.93,North,11,0.0,2.0,48,0.00,,,0.00,158,Wunderground v.1.15,2013-06-15 19:29:00,
2013-06-15 15:32:00,69.2,49.2,29.93,North,11,0.0,2.0,49,0.00,,,0.00,142,Wunderground v.1.15,2013-06-15 19:32:00,
2013-06-15 15:33:00,69.2,48.1,29.93,North,11,0.0,2.0,47,0.00,,,0.00,142,Wunderground v.1.15,2013-06-15 19:33:00,
2013-06-15 15:35:00,69.2,47.5,29.92,North,11,0.0,2.0,46,0.00,,,0.00,144,Wunderground v.1.15,2013-06-15 19:35:00,
2013-06-15 15:38:00,69.1,47.4,29.92,North,11,0.0,2.0,46,0.00,,,0.00,149,Wunderground v.1.15,2013-06-15 19:38:00,
2013-06-15 15:40:00,69.0,47.9,29.92,North,11,0.0,2.0,47,0.00,,,0.00,158,Wunderground v.1.15,2013-06-15 19:40:00,
2013-06-15 15:41:00,69.0,48.5,29.92,North,11,0.0,2.0,48,0.00,,,0.00,158,Wunderground v.1.15,2013-06-15 19:41:00,
2013-06-15 15:45:00,69.0,48.5,29.92,North,11,0.0,2.0,48,0.00,,,0.00,163,Wunderground v.1.15,2013-06-15 19:45:00,
2013-06-15 15:46:00,69.0,48.5,29.92,North,11,0.0,2.0,48,0.00,,,0.00,158,Wunderground v.1.15,2013-06-15 19:46:00,
2013-06-15 15:47:00,68.9,47.8,29.92,North,11,0.0,2.0,47,0.00,,,0.00,158,Wunderground v.1.15,2013-06-15 19:47:00,
2013-06-15 15:51:00,69.0,49.6,29.92,North,11,0.0,2.0,50,0.00,,,0.00,172,Wunderground v.1.15,2013-06-15 19:51:00,
2013-06-15 15:52:00,69.0,49.6,29.91,North,11,0.0,2.0,50,0.00,,,0.00,188,Wunderground v.1.15,2013-06-15 19:52:00,
2013-06-15 15:53:00,69.0,49.6,29.92,North,11,0.0,2.0,50,0.00,,,0.00,192,Wunderground v.1.15,2013-06-15 19:53:00,
2013-06-15 15:56:00,69.0,49.6,29.91,North,11,0.0,2.0,50,0.00,,,0.00,190,Wunderground v.1.15,2013-06-15 19:56:00,
2013-06-15 15:57:00,69.0,49.0,29.91,North,11,0.0,2.0,49,0.00,,,0.00,179,Wunderground v.1.15,2013-06-15 19:57:00,
2013-06-15 15:59:00,69.0,49.0,29.91,North,11,0.0,2.0,49,0.00,,,0.00,153,Wunderground v.1.15,2013-06-15 19:59:00,
2013-06-15 16:02:00,69.1,49.7,29.91,North,11,0.0,2.0,50,0.00,,,0.00,149,Wunderground v.1.15,2013-06-15 20:02:00,
2013-06-15 16:06:00,69.1,49.7,29.91,North,11,0.0,2.0,50,0.00,,,0.00,183,Wunderground v.1.15,2013-06-15 20:06:00,
2013-06-15 16:07:00,69.1,49.1,29.91,North,11,0.0,2.0,49,0.00,,,0.00,199,Wunderground v.1.15,2013-06-15 20:07:00,
2013-06-15 16:10:00,69.2,50.3,29.91,North,11,0.0,2.0,51,0.00,,,0.00,267,Wunderground v.1.15,2013-06-15 20:10:00,
2013-06-15 16:11:00,69.2,50.8,29.91,North,11,0.0,2.0,52,0.00,,,0.00,297,Wunderground v.1.15,2013-06-15 20:11:00,
2013-06-15 16:12:00,69.3,50.4,29.91,North,11,0.0,2.0,51,0.00,,,0.00,336,Wunderground v.1.15,2013-06-15 20:12:00,
2013-06-15 16:13:00,69.3,50.9,29.91,North,11,0.0,2.0,52,0.00,,,0.00,352,Wunderground v.1.15,2013-06-15 20:13:00,
2013-06-15 16:15:00,69.4,50.5,29.91,North,11,0.0,2.0,51,0.00,,,0.00,316,Wunderground v.1.15,2013-06-15 20:15:00,
2013-06-15 16:17:00,69.6,51.7,29.91,North,11,0.0,2.0,53,0.00,,,0.00,285,Wunderground v.1.15,2013-06-15 20:17:00,
2013-06-15 16:19:00,69.8,51.4,29.91,North,11,0.0,2.0,52,0.00,,,0.00,225,Wunderground v.1.15,2013-06-15 20:19:00,
2013-06-15 16:22:00,70.1,51.7,29.91,North,11,0.0,2.0,52,0.00,,,0.00,218,Wunderground v.1.15,2013-06-15 20:22:00,
2013-06-15 16:23:00,70.1,51.1,29.91,North,5,0.0,2.0,51,0.00,,,0.00,236,Wunderground v.1.15,2013-06-15 20:23:00,
2013-06-15 16:24:00,70.2,51.7,29.91,North,5,0.0,2.0,52,0.00,,,0.00,214,Wunderground v.1.15,2013-06-15 20:24:00,
2013-06-15 16:28:00,70.3,53.4,29.92,North,5,0.0,2.0,55,0.00,,,0.00,192,Wunderground v.1.15,2013-06-15 20:28:00,
2013-06-15 16:30:00,70.4,53.0,29.92,North,5,0.0,2.0,54,0.00,,,0.00,181,Wunderground v.1.15,2013-06-15 20:30:00,
2013-06-15 16:32:00,70.4,51.9,29.92,North,5,0.0,2.0,52,0.00,,,0.00,174,Wunderground v.1.15,2013-06-15 20:32:00,
2013-06-15 16:34:00,70.4,51.9,29.92,North,5,0.0,2.0,52,0.00,,,0.00,190,Wunderground v.1.15,2013-06-15 20:34:00,
2013-06-15 16:38:00,70.5,52.0,29.92,North,5,0.0,2.0,52,0.00,,,0.00,192,Wunderground v.1.15,2013-06-15 20:38:00,
2013-06-15 16:39:00,70.5,52.5,29.92,North,5,0.0,2.0,53,0.00,,,0.00,192,Wunderground v.1.15,2013-06-15 20:39:00,
2013-06-15 16:40:00,70.5,53.1,29.92,North,5,0.0,2.0,54,0.00,,,0.00,185,Wunderground v.1.15,2013-06-15 20:40:00,
2013-06-15 16:42:00,70.6,53.1,29.92,North,5,0.0,2.0,54,0.00,,,0.00,176,Wunderground v.1.15,2013-06-15 20:42:00,
2013-06-15 16:43:00,70.6,53.1,29.92,North,5,0.0,2.0,54,0.00,,,0.00,169,Wunderground v.1.15,2013-06-15 20:43:00,
2013-06-15 16:44:00,70.6,52.6,29.92,North,5,0.0,2.0,53,0.00,,,0.00,171,Wunderground v.1.15,2013-06-15 20:44:00,
2013-06-15 16:46:00,70.7,52.2,29.92,North,5,0.0,2.0,52,0.00,,,0.00,158,Wunderground v.1.15,2013-06-15 20:46:00,
2013-06-15 16:47:00,70.7,52.7,29.92,North,5,0.0,2.0,53,0.00,,,0.00,156,Wunderground v.1.15,2013-06-15 20:47:00,
2013-06-15 16:49:00,70.8,53.3,29.92,North,5,0.0,2.0,54,0.00,,,0.00,155,Wunderground v.1.15,2013-06-15 20:49:00,
2013-06-15 16:51:00,70.8,53.8,29.92,North,5,0.0,2.0,55,0.00,,,0.00,148,Wunderground v.1.15,2013-06-15 20:51:00,
2013-06-15 16:53:00,70.9,52.9,29.92,North,5,0.0,2.0,53,0.00,,,0.00,153,Wunderground v.1.15,2013-06-15 20:53:00,
2013-06-15 16:54:00,70.9,52.4,29.91,North,5,0.0,2.0,52,0.00,,,0.00,163,Wunderground v.1.15,2013-06-15 20:54:00,
2013-06-15 16:56:00,70.9,52.4,29.91,North,5,0.0,2.0,52,0.00,,,0.00,151,Wunderground v.1.15,2013-06-15 20:56:00,
2013-06-15 16:58:00,71.0,53.5,29.91,North,5,0.0,2.0,54,0.00,,,0.00,134,Wunderground v.1.15,2013-06-15 20:58:00,
2013-06-15 16:59:00,71.0,53.0,29.91,North,5,0.0,2.0,53,0.00,,,0.00,130,Wunderground v.1.15,2013-06-15 20:59:00,
2013-06-15 17:00:00,71.0,53.5,29.92,North,5,0.0,2.0,54,0.00,,,0.00,128,Wunderground v.1.15,2013-06-15 21:00:00,
2013-06-15 17:04:00,71.0,54.0,29.92,North,5,0.0,2.0,55,0.00,,,0.00,120,Wunderground v.1.15,2013-06-15 21:04:00,
2013-06-15 17:05:00,71.1,54.6,29.92,North,5,0.0,2.0,56,0.00,,,0.00,118,Wunderground v.1.15,2013-06-15 21:05:00,
2013-06-15 17:10:00,71.0,54.0,29.92,North,5,0.0,2.0,55,0.00,,,0.00,107,Wunderground v.1.15,2013-06-15 21:10:00,
2013-06-15 17:13:00,71.0,53.0,29.92,North,5,0.0,2.0,53,0.00,,,0.00,113,Wunderground v.1.15,2013-06-15 21:13:00,
2013-06-15 17:16:00,70.9,52.4,29.92,North,5,0.0,2.0,52,0.00,,,0.00,111,Wunderground v.1.15,2013-06-15 21:16:00,
2013-06-15 17:19:00,70.8,52.8,29.92,North,5,0.0,2.0,53,0.00,,,0.00,104,Wunderground v.1.15,2013-06-15 21:19:00,
2013-06-15 17:20:00,70.9,53.4,29.92,North,5,0.0,2.0,54,0.00,,,0.00,102,Wunderground v.1.15,2013-06-15 21:20:00,
2013-06-15 17:21:00,70.9,53.9,29.92,North,5,0.0,2.0,55,0.00,,,0.00,95,Wunderground v.1.15,2013-06-15 21:21:00,
2013-06-15 17:22:00,70.8,53.8,29.92,North,5,0.0,2.0,55,0.00,,,0.00,91,Wunderground v.1.15,2013-06-15 21:22:00,
2013-06-15 17:23:00,70.9,54.4,29.91,North,5,0.0,2.0,56,0.00,,,0.00,91,Wunderground v.1.15,2013-06-15 21:23:00,
2013-06-15 17:26:00,70.9,53.4,29.91,North,5,0.0,2.0,54,0.00,,,0.00,95,Wunderground v.1.15,2013-06-15 21:26:00,
2013-06-15 17:28:00,70.9,53.9,29.91,North,5,0.0,2.0,55,0.00,,,0.00,100,Wunderground v.1.15,2013-06-15 21:28:00,
2013-06-15 17:30:00,70.9,52.9,29.91,North,5,0.0,2.0,53,0.00,,,0.00,105,Wunderground v.1.15,2013-06-15 21:30:00,
2013-06-15 17:31:00,70.9,52.9,29.91,North,5,0.0,2.0,53,0.00,,,0.00,113,Wunderground v.1.15,2013-06-15 21:31:00,
2013-06-15 17:33:00,70.9,53.4,29.91,North,5,0.0,2.0,54,0.00,,,0.00,109,Wunderground v.1.15,2013-06-15 21:33:00,
2013-06-15 17:34:00,70.8,52.8,29.91,North,5,0.0,2.0,53,0.00,,,0.00,116,Wunderground v.1.15,2013-06-15 21:34:00,
2013-06-15 17:36:00,70.8,52.8,29.91,North,5,0.0,2.0,53,0.00,,,0.00,165,Wunderground v.1.15,2013-06-15 21:36:00,
2013-06-15 17:39:00,70.8,52.8,29.91,North,5,0.0,2.0,53,0.00,,,0.00,158,Wunderground v.1.15,2013-06-15 21:39:00,
2013-06-15 17:41:00,70.9,52.9,29.91,North,5,0.0,2.0,53,0.00,,,0.00,134,Wunderground v.1.15,2013-06-15 21:41:00,
2013-06-15 17:42:00,70.8,52.8,29.91,North,5,0.0,2.0,53,0.00,,,0.00,132,Wunderground v.1.15,2013-06-15 21:42:00,
2013-06-15 17:45:00,70.9,52.9,29.91,North,5,0.0,2.0,53,0.00,,,0.00,135,Wunderground v.1.15,2013-06-15 21:45:00,
2013-06-15 17:47:00,71.0,53.5,29.90,North,5,0.0,2.0,54,0.00,,,0.00,135,Wunderground v.1.15,2013-06-15 21:47:00,
2013-06-15 17:48:00,71.0,54.0,29.91,North,5,0.0,2.0,55,0.00,,,0.00,137,Wunderground v.1.15,2013-06-15 21:48:00,
2013-06-15 17:49:00,71.0,53.5,29.91,North,5,0.0,2.0,54,0.00,,,0.00,132,Wunderground v.1.15,2013-06-15 21:49:00,
2013-06-15 17:53:00,71.1,52.6,29.90,North,5,0.0,2.0,52,0.00,,,0.00,120,Wunderground v.1.15,2013-06-15 21:53:00,
2013-06-15 17:54:00,71.1,52.6,29.90,North,5,0.0,2.0,52,0.00,,,0.00,104,Wunderground v.1.15,2013-06-15 21:54:00,
2013-06-15 17:57:00,71.1,52.6,29.90,North,5,0.0,2.0,52,0.00,,,0.00,76,Wunderground v.1.15,2013-06-15 21:57:00,
2013-06-15 17:59:00,71.1,51.5,29.90,North,5,0.0,2.0,50,0.00,,,0.00,77,Wunderground v.1.15,2013-06-15 21:59:00,
2013-06-15 18:00:00,71.0,52.0,29.90,North,5,0.0,2.0,51,0.00,,,0.00,77,Wunderground v.1.15,2013-06-15 22:00:00,
2013-06-15 18:06:00,70.8,51.8,29.90,NE,41,0.0,2.0,51,0.00,,,0.00,74,Wunderground v.1.15,2013-06-15 22:06:00,
2013-06-15 18:07:00,70.7,51.7,29.90,NE,41,0.0,2.0,51,0.00,,,0.00,62,Wunderground v.1.15,2013-06-15 22:07:00,
2013-06-15 18:08:00,70.7,52.2,29.90,NE,41,0.0,2.0,52,0.00,,,0.00,63,Wunderground v.1.15,2013-06-15 22:08:00,
2013-06-15 18:10:00,70.5,51.5,29.90,NE,49,0.0,2.0,51,0.00,,,0.00,70,Wunderground v.1.15,2013-06-15 22:10:00,
2013-06-15 18:11:00,70.4,51.9,29.90,NE,46,0.0,2.0,52,0.00,,,0.00,74,Wunderground v.1.15,2013-06-15 22:11:00,
2013-06-15 18:12:00,70.4,51.4,29.90,NE,46,0.0,2.0,51,0.00,,,0.00,74,Wunderground v.1.15,2013-06-15 22:12:00,
2013-06-15 18:14:00,70.2,51.2,29.90,NE,46,0.0,2.0,51,0.00,,,0.00,65,Wunderground v.1.15,2013-06-15 22:14:00,
2013-06-15 18:16:00,70.1,51.1,29.90,NE,46,0.0,2.0,51,0.00,,,0.00,63,Wunderground v.1.15,2013-06-15 22:16:00,
2013-06-15 18:18:00,70.0,51.6,29.90,NE,46,0.0,2.0,52,0.00,,,0.00,62,Wunderground v.1.15,2013-06-15 22:18:00,
2013-06-15 18:20:00,69.9,50.9,29.90,NE,46,0.0,2.0,51,0.00,,,0.00,56,Wunderground v.1.15,2013-06-15 22:20:00,
2013-06-15 18:22:00,69.7,50.8,29.90,NE,46,0.0,2.0,51,0.00,,,0.00,49,Wunderground v.1.15,2013-06-15 22:22:00,
2013-06-15 18:23:00,69.7,50.8,29.90,NE,46,0.0,2.0,51,0.00,,,0.00,46,Wunderground v.1.15,2013-06-15 22:23:00,
2013-06-15 18:25:00,69.5,50.6,29.90,NE,46,0.0,2.0,51,0.00,,,0.00,47,Wunderground v.1.15,2013-06-15 22:25:00,
2013-06-15 18:26:00,69.5,51.1,29.90,NE,46,0.0,2.0,52,0.00,,,0.00,53,Wunderground v.1.15,2013-06-15 22:26:00,
2013-06-15 18:27:00,69.4,51.0,29.90,NE,46,0.0,2.0,52,0.00,,,0.00,58,Wunderground v.1.15,2013-06-15 22:27:00,
2013-06-15 18:31:00,69.2,50.8,29.90,ENE,63,0.0,2.0,52,0.00,,,0.00,60,Wunderground v.1.15,2013-06-15 22:31:00,
2013-06-15 18:32:00,69.2,50.8,29.90,ENE,63,0.0,2.0,52,0.00,,,0.00,54,Wunderground v.1.15,2013-06-15 22:32:00,
2013-06-15 18:33:00,69.1,50.7,29.90,ENE,63,0.0,2.0,52,0.00,,,0.00,49,Wunderground v.1.15,2013-06-15 22:33:00,
2013-06-15 18:34:00,69.1,50.7,29.90,ENE,63,0.0,2.0,52,0.00,,,0.00,46,Wunderground v.1.15,2013-06-15 22:34:00,
2013-06-15 18:37:00,68.9,51.1,29.90,ENE,63,0.0,2.0,53,0.00,,,0.00,42,Wunderground v.1.15,2013-06-15 22:37:00,
2013-06-15 18:40:00,68.8,51.0,29.90,ENE,63,0.0,2.0,53,0.00,,,0.00,46,Wunderground v.1.15,2013-06-15 22:40:00,
2013-06-15 18:41:00,68.8,51.5,29.91,ENE,63,0.0,2.0,54,0.00,,,0.00,46,Wunderground v.1.15,2013-06-15 22:41:00,
2013-06-15 18:42:00,68.7,51.4,29.91,ENE,63,0.0,2.0,54,0.00,,,0.00,44,Wunderground v.1.15,2013-06-15 22:42:00,
2013-06-15 18:43:00,68.7,51.4,29.90,ENE,63,0.0,2.0,54,0.00,,,0.00,44,Wunderground v.1.15,2013-06-15 22:43:00,
2013-06-15 18:45:00,68.7,51.4,29.90,ENE,63,0.0,2.0,54,0.00,,,0.00,46,Wunderground v.1.15,2013-06-15 22:45:00,
2013-06-15 18:46:00,68.6,51.8,29.90,ENE,63,0.0,2.0,55,0.00,,,0.00,47,Wunderground v.1.15,2013-06-15 22:46:00,
2013-06-15 18:47:00,68.6,51.3,29.90,ENE,63,0.0,2.0,54,0.00,,,0.00,51,Wunderground v.1.15,2013-06-15 22:47:00,
2013-06-15 18:48:00,68.6,51.8,29.90,ENE,63,0.0,2.0,55,0.00,,,0.00,51,Wunderground v.1.15,2013-06-15 22:48:00,
2013-06-15 18:52:00,68.4,51.6,29.90,ENE,63,0.0,2.0,55,0.00,,,0.00,42,Wunderground v.1.15,2013-06-15 22:52:00,
2013-06-15 18:53:00,68.4,51.6,29.90,ENE,63,0.0,2.0,55,0.00,,,0.00,40,Wunderground v.1.15,2013-06-15 22:53:00,
2013-06-15 18:54:00,68.4,51.6,29.90,ENE,63,0.0,2.0,55,0.00,,,0.00,40,Wunderground v.1.15,2013-06-15 22:54:00,
2013-06-15 18:55:00,68.3,51.5,29.90,ENE,63,0.0,2.0,55,0.00,,,0.00,42,Wunderground v.1.15,2013-06-15 22:55:00,
2013-06-15 18:56:00,68.3,51.0,29.90,ENE,63,0.0,2.0,54,0.00,,,0.00,42,Wunderground v.1.15,2013-06-15 22:56:00,
2013-06-15 18:59:00,68.2,51.4,29.89,ENE,63,0.0,2.0,55,0.00,,,0.00,40,Wunderground v.1.15,2013-06-15 22:59:00,
2013-06-15 19:01:00,68.2,51.4,29.89,ENE,63,0.0,2.0,55,0.00,,,0.00,49,Wunderground v.1.15,2013-06-15 23:01:00,
2013-06-15 19:03:00,68.1,51.3,29.89,ENE,63,0.0,2.0,55,0.00,,,0.00,56,Wunderground v.1.15,2013-06-15 23:03:00,
2013-06-15 19:06:00,68.0,51.2,29.89,ENE,63,0.0,2.0,55,0.00,,,0.00,60,Wunderground v.1.15,2013-06-15 23:06:00,
2013-06-15 19:10:00,68.0,51.7,29.88,ENE,63,0.0,2.0,56,0.00,,,0.00,56,Wunderground v.1.15,2013-06-15 23:10:00,
2013-06-15 19:11:00,68.0,51.2,29.88,ENE,63,0.0,2.0,55,0.00,,,0.00,53,Wunderground v.1.15,2013-06-15 23:11:00,
2013-06-15 19:12:00,68.0,51.2,29.88,ENE,63,0.0,2.0,55,0.00,,,0.00,49,Wunderground v.1.15,2013-06-15 23:12:00,
2013-06-15 19:13:00,68.0,51.7,29.88,ENE,63,0.0,2.0,56,0.00,,,0.00,46,Wunderground v.1.15,2013-06-15 23:13:00,
2013-06-15 19:16:00,68.0,51.7,29.88,ENE,63,0.0,2.0,56,0.00,,,0.00,46,Wunderground v.1.15,2013-06-15 23:16:00,
2013-06-15 19:17:00,68.0,51.7,29.88,ENE,63,0.0,2.0,56,0.00,,,0.00,49,Wunderground v.1.15,2013-06-15 23:17:00,
2013-06-15 19:20:00,68.0,51.7,29.88,ENE,63,0.0,2.0,56,0.00,,,0.00,62,Wunderground v.1.15,2013-06-15 23:20:00,
2013-06-15 19:21:00,68.0,51.7,29.88,ENE,63,0.0,2.0,56,0.00,,,0.00,60,Wunderground v.1.15,2013-06-15 23:21:00,
2013-06-15 19:22:00,68.0,51.7,29.88,ENE,63,0.0,2.0,56,0.00,,,0.00,56,Wunderground v.1.15,2013-06-15 23:22:00,
2013-06-15 19:24:00,68.0,51.7,29.88,ENE,63,0.0,2.0,56,0.00,,,0.00,49,Wunderground v.1.15,2013-06-15 23:24:00,
2013-06-15 19:26:00,68.0,51.7,29.88,ENE,63,0.0,2.0,56,0.00,,,0.00,51,Wunderground v.1.15,2013-06-15 23:26:00,
2013-06-15 19:28:00,68.0,52.7,29.87,ENE,63,0.0,2.0,58,0.00,,,0.00,53,Wunderground v.1.15,2013-06-15 23:28:00,
2013-06-15 19:30:00,67.9,52.1,29.87,ENE,63,0.0,2.0,57,0.00,,,0.00,58,Wunderground v.1.15,2013-06-15 23:30:00,
2013-06-15 19:32:00,67.9,52.1,29.87,ENE,63,0.0,2.0,57,0.00,,,0.00,62,Wunderground v.1.15,2013-06-15 23:32:00,
2013-06-15 19:33:00,67.9,52.1,29.86,ENE,63,0.0,2.0,57,0.00,,,0.00,62,Wunderground v.1.15,2013-06-15 23:33:00,
2013-06-15 19:36:00,67.8,52.5,29.86,ENE,63,0.0,2.0,58,0.00,,,0.00,56,Wunderground v.1.15,2013-06-15 23:36:00,
2013-06-15 19:38:00,67.7,51.9,29.86,ENE,63,0.0,2.0,57,0.00,,,0.00,47,Wunderground v.1.15,2013-06-15 23:38:00,
2013-06-15 19:39:00,67.7,51.9,29.86,ENE,63,0.0,2.0,57,0.00,,,0.00,44,Wunderground v.1.15,2013-06-15 23:39:00,
2013-06-15 19:40:00,67.7,51.9,29.86,ENE,63,0.0,2.0,57,0.00,,,0.00,40,Wunderground v.1.15,2013-06-15 23:40:00,
2013-06-15 19:43:00,67.7,51.4,29.86,ENE,63,0.0,2.0,56,0.00,,,0.00,30,Wunderground v.1.15,2013-06-15 23:43:00,
2013-06-15 19:44:00,67.7,51.9,29.86,ENE,63,0.0,2.0,57,0.00,,,0.00,26,Wunderground v.1.15,2013-06-15 23:44:00,
2013-06-15 19:45:00,67.7,51.9,29.86,ENE,63,0.0,2.0,57,0.00,,,0.00,26,Wunderground v.1.15,2013-06-15 23:45:00,
2013-06-15 19:50:00,67.6,51.3,29.87,ENE,63,0.0,2.0,56,0.00,,,0.00,18,Wunderground v.1.15,2013-06-15 23:50:00,
2013-06-15 19:51:00,67.6,51.8,29.87,ENE,63,0.0,2.0,57,0.00,,,0.00,18,Wunderground v.1.15,2013-06-15 23:51:00,
2013-06-15 19:52:00,67.6,51.8,29.87,ENE,63,0.0,2.0,57,0.00,,,0.00,18,Wunderground v.1.15,2013-06-15 23:52:00,
2013-06-15 19:53:00,67.6,51.8,29.87,ENE,63,0.0,2.0,57,0.00,,,0.00,18,Wunderground v.1.15,2013-06-15 23:53:00,
2013-06-15 19:55:00,67.5,51.2,29.87,ENE,63,0.0,2.0,56,0.00,,,0.00,19,Wunderground v.1.15,2013-06-15 23:55:00,
2013-06-15 19:58:00,67.4,51.6,29.87,ENE,63,0.0,2.0,57,0.00,,,0.00,21,Wunderground v.1.15,2013-06-15 23:58:00,
2013-06-15 19:59:00,67.4,51.6,29.87,ENE,63,0.0,2.0,57,0.00,,,0.00,21,Wunderground v.1.15,2013-06-15 23:59:00,
2013-06-15 20:00:00,67.4,51.6,29.87,ENE,63,0.0,2.0,57,0.00,,,0.00,21,Wunderground v.1.15,2013-06-16 00:00:00,
2013-06-15 20:01:00,67.4,51.6,29.87,ENE,63,0.0,2.0,57,0.00,,,0.00,23,Wunderground v.1.15,2013-06-16 00:01:00,
2013-06-15 20:04:00,67.2,51.9,29.86,ENE,63,0.0,2.0,58,0.00,,,0.00,21,Wunderground v.1.15,2013-06-16 00:04:00,
2013-06-15 20:05:00,67.2,52.4,29.86,ENE,63,0.0,2.0,59,0.00,,,0.00,21,Wunderground v.1.15,2013-06-16 00:05:00,
2013-06-15 20:07:00,67.2,51.9,29.86,ENE,63,0.0,2.0,58,0.00,,,0.00,23,Wunderground v.1.15,2013-06-16 00:07:00,
2013-06-15 20:10:00,67.1,52.3,29.86,ENE,63,0.0,2.0,59,0.00,,,0.00,21,Wunderground v.1.15,2013-06-16 00:10:00,
2013-06-15 20:13:00,66.9,52.6,29.86,ENE,63,0.0,2.0,60,0.00,,,0.00,18,Wunderground v.1.15,2013-06-16 00:13:00,
2013-06-15 20:14:00,66.9,52.6,29.86,ENE,63,0.0,2.0,60,0.00,,,0.00,18,Wunderground v.1.15,2013-06-16 00:14:00,
2013-06-15 20:15:00,66.9,52.6,29.86,ENE,63,0.0,2.0,60,0.00,,,0.00,16,Wunderground v.1.15,2013-06-16 00:15:00,
2013-06-15 20:16:00,66.9,52.6,29.86,ENE,63,0.0,2.0,60,0.00,,,0.00,16,Wunderground v.1.15,2013-06-16 00:16:00,
2013-06-15 20:20:00,66.7,52.8,29.85,ENE,63,0.0,2.0,61,0.00,,,0.00,16,Wunderground v.1.15,2013-06-16 00:20:00,
2013-06-15 20:21:00,66.7,52.8,29.85,ENE,63,0.0,2.0,61,0.00,,,0.00,14,Wunderground v.1.15,2013-06-16 00:21:00,
2013-06-15 20:22:00,66.7,52.8,29.85,ENE,63,0.0,2.0,61,0.00,,,0.00,14,Wunderground v.1.15,2013-06-16 00:22:00,
2013-06-15 20:26:00,66.6,52.7,29.85,ENE,63,0.0,2.0,61,0.00,,,0.00,11,Wunderground v.1.15,2013-06-16 00:26:00,
2013-06-15 20:27:00,66.6,52.7,29.85,ENE,63,0.0,2.0,61,0.00,,,0.00,11,Wunderground v.1.15,2013-06-16 00:27:00,
2013-06-15 20:31:00,66.5,52.6,29.85,ENE,63,0.0,2.0,61,0.00,,,0.00,11,Wunderground v.1.15,2013-06-16 00:31:00,
2013-06-15 20:33:00,66.5,52.6,29.85,ENE,63,0.0,2.0,61,0.00,,,0.00,9,Wunderground v.1.15,2013-06-16 00:33:00,
2013-06-15 20:37:00,66.4,52.5,29.85,ENE,63,0.0,2.0,61,0.00,,,0.00,7,Wunderground v.1.15,2013-06-16 00:37:00,
2013-06-15 20:39:00,66.3,52.4,29.85,ENE,63,0.0,2.0,61,0.00,,,0.00,9,Wunderground v.1.15,2013-06-16 00:39:00,
2013-06-15 20:40:00,66.3,52.0,29.85,ENE,63,0.0,2.0,60,0.00,,,0.00,9,Wunderground v.1.15,2013-06-16 00:40:00,
2013-06-15 20:44:00,66.2,51.9,29.85,ENE,63,0.0,2.0,60,0.00,,,0.00,7,Wunderground v.1.15,2013-06-16 00:44:00,
2013-06-15 20:45:00,66.2,51.9,29.85,ENE,63,0.0,2.0,60,0.00,,,0.00,7,Wunderground v.1.15,2013-06-16 00:45:00,
2013-06-15 20:46:00,66.2,51.9,29.85,ENE,63,0.0,2.0,60,0.00,,,0.00,7,Wunderground v.1.15,2013-06-16 00:46:00,
2013-06-15 20:49:00,66.1,51.8,29.85,ENE,63,0.0,2.0,60,0.00,,,0.00,7,Wunderground v.1.15,2013-06-16 00:49:00,
2013-06-15 20:50:00,66.1,51.8,29.85,ENE,63,0.0,2.0,60,0.00,,,0.00,7,Wunderground v.1.15,2013-06-16 00:50:00,
2013-06-15 20:52:00,66.0,51.7,29.86,ENE,63,0.0,2.0,60,0.00,,,0.00,5,Wunderground v.1.15,2013-06-16 00:52:00,
2013-06-15 20:55:00,65.9,51.6,29.85,ENE,63,0.0,2.0,60,0.00,,,0.00,5,Wunderground v.1.15,2013-06-16 00:55:00,
2013-06-15 20:58:00,65.9,52.1,29.85,ENE,63,0.0,2.0,61,0.00,,,0.00,0,Wunderground v.1.15,2013-06-16 00:58:00,
2013-06-15 21:01:00,65.8,52.0,29.85,ENE,63,0.0,2.0,61,0.00,,,0.00,0,Wunderground v.1.15,2013-06-16 01:01:00,
2013-06-15 21:04:00,65.8,52.4,29.85,ENE,63,0.0,2.0,62,0.00,,,0.00,0,Wunderground v.1.15,2013-06-16 01:04:00,
2013-06-15 21:06:00,65.7,52.3,29.85,ENE,63,0.0,2.0,62,0.00,,,0.00,0,Wunderground v.1.15,2013-06-16 01:06:00,
2013-06-15 21:08:00,65.6,52.2,29.85,ENE,63,0.0,2.0,62,0.00,,,0.00,0,Wunderground v.1.15,2013-06-16 01:08:00,
2013-06-15 21:09:00,65.6,52.2,29.85,ENE,63,0.0,2.0,62,0.00,,,0.00,0,Wunderground v.1.15,2013-06-16 01:09:00,
2013-06-15 21:10:00,65.6,52.2,29.84,ENE,63,0.0,2.0,62,0.00,,,0.00,0,Wunderground v.1.15,2013-06-16 01:10:00,
2013-06-15 21:14:00,65.5,52.6,29.85,ENE,63,0.0,2.0,63,0.00,,,0.00,0,Wunderground v.1.15,2013-06-16 01:14:00,
2013-06-15 21:17:00,65.4,52.5,29.85,ENE,63,0.0,2.0,63,0.00,,,0.00,0,Wunderground v.1.15,2013-06-16 01:17:00,
2013-06-15 21:18:00,65.4,52.5,29.85,ENE,63,0.0,2.0,63,0.00,,,0.00,0,Wunderground v.1.15,2013-06-16 01:18:00,
2013-06-15 21:21:00,65.3,52.8,29.85,ENE,63,0.0,2.0,64,0.00,,,0.00,0,Wunderground v.1.15,2013-06-16 01:21:00,
2013-06-15 21:23:00,65.3,52.8,29.85,ENE,63,0.0,2.0,64,0.00,,,0.00,0,Wunderground v.1.15,2013-06-16 01:23:00,
2013-06-15 21:24:00,65.3,52.8,29.85,ENE,63,0.0,2.0,64,0.00,,,0.00,0,Wunderground v.1.15,2013-06-16 01:24:00,
2013-06-15 21:27:00,65.2,52.7,29.85,ENE,63,0.0,2.0,64,0.00,,,0.00,0,Wunderground v.1.15,2013-06-16 01:27:00,
2013-06-15 21:28:00,65.2,53.1,29.85,ENE,63,0.0,2.0,65,0.00,,,0.00,0,Wunderground v.1.15,2013-06-16 01:28:00,
2013-06-15 21:29:00,65.1,53.0,29.85,ENE,63,0.0,2.0,65,0.00,,,0.00,0,Wunderground v.1.15,2013-06-16 01:29:00,
2013-06-15 21:31:00,65.1,53.0,29.85,ENE,63,0.0,2.0,65,0.00,,,0.00,0,Wunderground v.1.15,2013-06-16 01:31:00,
2013-06-15 21:34:00,65.1,53.0,29.85,ENE,63,0.0,2.0,65,0.00,,,0.00,0,Wunderground v.1.15,2013-06-16 01:34:00,
2013-06-15 21:35:00,65.1,53.5,29.85,ENE,63,0.0,2.0,66,0.00,,,0.00,0,Wunderground v.1.15,2013-06-16 01:35:00,
2013-06-15 21:36:00,65.0,53.4,29.85,ENE,63,0.0,2.0,66,0.00,,,0.00,0,Wunderground v.1.15,2013-06-16 01:36:00,
2013-06-15 21:40:00,65.0,53.8,29.85,ENE,63,0.0,2.0,67,0.00,,,0.00,0,Wunderground v.1.15,2013-06-16 01:40:00,
2013-06-15 21:42:00,65.0,54.2,29.85,ENE,63,0.0,2.0,68,0.00,,,0.00,0,Wunderground v.1.15,2013-06-16 01:42:00,
2013-06-15 21:46:00,64.9,54.5,29.85,ENE,63,0.0,2.0,69,0.00,,,0.00,0,Wunderground v.1.15,2013-06-16 01:46:00,
2013-06-15 21:47:00,64.9,54.9,29.85,ENE,63,0.0,2.0,70,0.00,,,0.00,0,Wunderground v.1.15,2013-06-16 01:47:00,
2013-06-15 21:48:00,64.8,54.8,29.85,ENE,63,0.0,2.0,70,0.00,,,0.00,0,Wunderground v.1.15,2013-06-16 01:48:00,
2013-06-15 21:50:00,64.8,55.2,29.85,ENE,63,0.0,2.0,71,0.00,,,0.00,0,Wunderground v.1.15,2013-06-16 01:50:00,
2013-06-15 21:53:00,64.7,55.5,29.85,ENE,63,0.0,2.0,72,0.00,,,0.00,0,Wunderground v.1.15,2013-06-16 01:53:00,
2013-06-15 21:54:00,64.6,55.4,29.85,ENE,63,0.0,2.0,72,0.00,,,0.00,0,Wunderground v.1.15,2013-06-16 01:54:00,
2013-06-15 21:55:00,64.5,55.3,29.85,ENE,63,0.0,2.0,72,0.00,,,0.00,0,Wunderground v.1.15,2013-06-16 01:55:00,
2013-06-15 21:58:00,64.4,55.6,29.85,ENE,63,0.0,2.0,73,0.00,,,0.00,0,Wunderground v.1.15,2013-06-16 01:58:00,
2013-06-15 22:00:00,64.3,55.8,29.85,ENE,63,0.0,2.0,74,0.00,,,0.00,0,Wunderground v.1.15,2013-06-16 02:00:00,
2013-06-15 22:01:00,64.3,55.8,29.85,ENE,63,0.0,2.0,74,0.00,,,0.00,0,Wunderground v.1.15,2013-06-16 02:01:00,
2013-06-15 22:03:00,64.2,55.7,29.85,ENE,63,0.0,2.0,74,0.00,,,0.00,0,Wunderground v.1.15,2013-06-16 02:03:00,
2013-06-15 22:04:00,64.1,55.6,29.85,ENE,63,0.0,2.0,74,0.00,,,0.00,0,Wunderground v.1.15,2013-06-16 02:04:00,
2013-06-15 22:05:00,64.1,56.0,29.84,ENE,63,0.0,2.0,75,0.00,,,0.00,0,Wunderground v.1.15,2013-06-16 02:05:00,
2013-06-15 22:06:00,64.0,55.9,29.85,ENE,63,0.0,2.0,75,0.00,,,0.00,0,Wunderground v.1.15,2013-06-16 02:06:00,
2013-06-15 22:09:00,63.9,55.8,29.84,ENE,63,0.0,2.0,75,0.00,,,0.00,0,Wunderground v.1.15,2013-06-16 02:09:00,
2013-06-15 22:10:00,63.8,55.7,29.84,ENE,63,0.0,2.0,75,0.00,,,0.00,0,Wunderground v.1.15,2013-06-16 02:10:00,
2013-06-15 22:11:00,63.7,55.6,29.84,ENE,63,0.0,2.0,75,0.00,,,0.00,0,Wunderground v.1.15,2013-06-16 02:11:00,
2013-06-15 22:14:00,63.5,55.4,29.84,ENE,63,0.0,2.0,75,0.00,,,0.00,0,Wunderground v.1.15,2013-06-16 02:14:00,
2013-06-15 22:17:00,63.4,55.7,29.84,ENE,63,0.0,2.0,76,0.00,,,0.00,0,Wunderground v.1.15,2013-06-16 02:17:00,
2013-06-15 22:18:00,63.4,56.4,29.84,ENE,63,0.0,2.0,78,0.00,,,0.00,0,Wunderground v.1.15,2013-06-16 02:18:00,
2013-06-15 22:23:00,63.2,57.3,29.85,ENE,63,0.0,2.0,81,0.66,,,0.04,0,Wunderground v.1.15,2013-06-16 02:23:00,
2013-06-15 22:24:00,63.2,57.3,29.85,ENE,63,0.0,2.0,81,0.46,,,0.04,0,Wunderground v.1.15,2013-06-16 02:24:00,
2013-06-15 22:26:00,63.0,57.1,29.85,ENE,63,0.0,2.0,81,0.24,,,0.05,0,Wunderground v.1.15,2013-06-16 02:26:00,
2013-06-15 22:28:00,62.7,56.8,29.85,ENE,63,0.0,2.0,81,0.38,,,0.06,0,Wunderground v.1.15,2013-06-16 02:28:00,
2013-06-15 22:30:00,62.5,56.9,29.85,ENE,63,0.0,2.0,82,0.18,,,0.06,0,Wunderground v.1.15,2013-06-16 02:30:00,
2013-06-15 22:32:00,62.2,56.6,29.85,ENE,63,0.0,2.0,82,0.13,,,0.07,0,Wunderground v.1.15,2013-06-16 02:32:00,
2013-06-15 22:33:00,62.1,56.5,29.85,ENE,63,0.0,2.0,82,0.13,,,0.07,0,Wunderground v.1.15,2013-06-16 02:33:00,
2013-06-15 22:34:00,62.0,56.8,29.85,ENE,63,0.0,2.0,83,0.22,,,0.07,0,Wunderground v.1.15,2013-06-16 02:34:00,
2013-06-15 22:37:00,61.7,56.8,29.85,ENE,63,0.0,2.0,84,0.20,,,0.08,0,Wunderground v.1.15,2013-06-16 02:37:00,
2013-06-15 22:40:00,61.4,56.8,29.85,ENE,63,0.0,2.0,85,0.83,,,0.11,0,Wunderground v.1.15,2013-06-16 02:40:00,
2013-06-15 22:41:00,61.4,56.8,29.85,ENE,63,0.0,2.0,85,0.55,,,0.12,0,Wunderground v.1.15,2013-06-16 02:41:00,
2013-06-15 22:47:00,60.8,56.9,29.85,ENE,63,0.0,2.0,87,1.13,,,0.18,0,Wunderground v.1.15,2013-06-16 02:47:00,
2013-06-15 22:48:00,60.7,57.1,29.85,ENE,63,0.0,2.0,88,0.60,,,0.20,0,Wunderground v.1.15,2013-06-16 02:48:00,
2013-06-15 22:50:00,60.6,57.0,29.85,ENE,63,0.0,2.0,88,2.55,,,0.25,0,Wunderground v.1.15,2013-06-16 02:50:00,
2013-06-15 22:51:00,60.5,56.9,29.85,ENE,63,0.0,2.0,88,2.26,,,0.28,0,Wunderground v.1.15,2013-06-16 02:51:00,
2013-06-15 22:55:00,60.3,57.0,29.85,ENE,63,0.0,2.0,89,0.78,,,0.35,0,Wunderground v.1.15,2013-06-16 02:55:00,
2013-06-15 22:56:00,60.2,56.9,29.85,ENE,63,0.0,2.0,89,0.42,,,0.36,0,Wunderground v.1.15,2013-06-16 02:56:00,
2013-06-15 22:57:00,60.1,56.8,29.85,ENE,63,0.0,2.0,89,0.46,,,0.37,0,Wunderground v.1.15,2013-06-16 02:57:00,
2013-06-15 22:58:00,60.1,56.8,29.84,ENE,63,0.0,2.0,89,0.99,,,0.38,0,Wunderground v.1.15,2013-06-16 02:58:00,
2013-06-15 23:01:00,59.9,57.0,29.84,ENE,63,0.0,2.0,90,0.29,,,0.39,0,Wunderground v.1.15,2013-06-16 03:01:00,
2013-06-15 23:03:00,59.8,56.9,29.84,ENE,63,0.0,2.0,90,0.18,,,0.40,0,Wunderground v.1.15,2013-06-16 03:03:00,
2013-06-15 23:04:00,59.8,56.9,29.84,ENE,63,0.0,2.0,90,0.18,,,0.40,0,Wunderground v.1.15,2013-06-16 03:04:00,
2013-06-15 23:05:00,59.7,56.8,29.84,ENE,63,0.0,2.0,90,0.18,,,0.40,0,Wunderground v.1.15,2013-06-16 03:05:00,
2013-06-15 23:10:00,59.5,56.9,29.84,ENE,63,0.0,2.0,91,0.08,,,0.40,0,Wunderground v.1.15,2013-06-16 03:10:00,
2013-06-15 23:11:00,59.5,57.2,29.84,ENE,63,0.0,2.0,92,0.07,,,0.40,0,Wunderground v.1.15,2013-06-16 03:11:00,
2013-06-15 23:12:00,59.4,57.1,29.84,ENE,63,0.0,2.0,92,0.07,,,0.41,0,Wunderground v.1.15,2013-06-16 03:12:00,
2013-06-15 23:13:00,59.4,57.1,29.84,ENE,63,0.0,2.0,92,0.07,,,0.41,0,Wunderground v.1.15,2013-06-16 03:13:00,
2013-06-15 23:16:00,59.4,57.1,29.84,ENE,63,0.0,2.0,92,0.15,,,0.42,0,Wunderground v.1.15,2013-06-16 03:16:00,
2013-06-15 23:17:00,59.3,57.0,29.84,ENE,63,0.0,2.0,92,0.15,,,0.42,0,Wunderground v.1.15,2013-06-16 03:17:00,
2013-06-15 23:18:00,59.3,57.0,29.84,ENE,63,0.0,2.0,92,0.15,,,0.42,0,Wunderground v.1.15,2013-06-16 03:18:00,
2013-06-15 23:20:00,59.2,56.9,29.84,ENE,63,0.0,2.0,92,0.13,,,0.42,0,Wunderground v.1.15,2013-06-16 03:20:00,
2013-06-15 23:23:00,59.1,57.1,29.84,ENE,63,0.0,2.0,93,0.08,,,0.42,0,Wunderground v.1.15,2013-06-16 03:23:00,
2013-06-15 23:26:00,59.1,57.1,29.84,ENE,63,0.0,2.0,93,0.06,,,0.42,0,Wunderground v.1.15,2013-06-16 03:26:00,
2013-06-15 23:27:00,59.0,57.0,29.84,ENE,63,0.0,2.0,93,0.05,,,0.42,0,Wunderground v.1.15,2013-06-16 03:27:00,
2013-06-15 23:30:00,59.0,57.0,29.84,ENE,63,0.0,2.0,93,0.04,,,0.42,0,Wunderground v.1.15,2013-06-16 03:30:00,
2013-06-15 23:31:00,58.9,56.9,29.84,ENE,63,0.0,2.0,93,0.04,,,0.42,0,Wunderground v.1.15,2013-06-16 03:31:00,
2013-06-15 23:32:00,58.9,56.9,29.84,ENE,63,0.0,2.0,93,0.04,,,0.42,0,Wunderground v.1.15,2013-06-16 03:32:00,
2013-06-15 23:35:00,58.8,56.8,29.85,ENE,63,0.0,2.0,93,0.00,,,0.42,0,Wunderground v.1.15,2013-06-16 03:35:00,
2013-06-15 23:36:00,58.7,56.7,29.85,ENE,63,0.0,2.0,93,0.00,,,0.42,0,Wunderground v.1.15,2013-06-16 03:36:00,
2013-06-15 23:37:00,58.7,56.7,29.85,ENE,63,0.0,2.0,93,0.00,,,0.43,0,Wunderground v.1.15,2013-06-16 03:37:00,
2013-06-15 23:39:00,58.7,56.7,29.85,ENE,63,0.0,2.0,93,0.00,,,0.43,0,Wunderground v.1.15,2013-06-16 03:39:00,
2013-06-15 23:41:00,58.6,56.6,29.85,ENE,63,0.0,2.0,93,0.00,,,0.43,0,Wunderground v.1.15,2013-06-16 03:41:00,
2013-06-15 23:42:00,58.5,56.5,29.85,ENE,63,0.0,2.0,93,0.00,,,0.43,0,Wunderground v.1.15,2013-06-16 03:42:00,
2013-06-15 23:43:00,58.5,56.5,29.85,ENE,63,0.0,2.0,93,0.00,,,0.43,0,Wunderground v.1.15,2013-06-16 03:43:00,
2013-06-15 23:47:00,58.4,56.4,29.85,ENE,63,0.0,2.0,93,0.07,,,0.44,0,Wunderground v.1.15,2013-06-16 03:47:00,
2013-06-15 23:48:00,58.3,56.3,29.85,ENE,63,0.0,2.0,93,0.07,,,0.44,0,Wunderground v.1.15,2013-06-16 03:48:00,
2013-06-15 23:49:00,58.2,56.2,29.85,ENE,63,0.0,2.0,93,0.07,,,0.44,0,Wunderground v.1.15,2013-06-16 03:49:00,
2013-06-15 23:51:00,58.2,56.5,29.85,ENE,63,0.0,2.0,94,0.07,,,0.44,0,Wunderground v.1.15,2013-06-16 03:51:00,
2013-06-15 23:52:00,58.2,56.5,29.85,ENE,63,0.0,2.0,94,0.07,,,0.44,0,Wunderground v.1.15,2013-06-16 03:52:00,
2013-06-15 23:54:00,58.1,56.4,29.84,ENE,63,0.0,2.0,94,0.08,,,0.45,0,Wunderground v.1.15,2013-06-16 03:54:00,
2013-06-15 23:57:00,58.0,56.3,29.83,ENE,58,0.0,2.0,94,0.18,,,0.46,0,Wunderground v.1.15,2013-06-16 03:57:00,